Wetterdaten: Dienstag, 08.09.2020
Datum Zeit Temp. Aussen Temp. o. S. Temp +5cm Feuchte Auss Luftdruck Regen Sonnenschein Regendauer Solar Windben Empfang
08.09.2020 00:00 14,6 C 13,9 C 13,3 C 80 % 1025,1 hPa 0,0 l/m 0 min 0 min 0 W/m 6,4 km/h (2 Bft) 95,65 %
08.09.2020 00:02 14,6 C 13,9 C 13,3 C 80 % 1025,1 hPa 0,0 l/m 0 min 0 min 0 W/m 6,4 km/h (2 Bft) 91,49 %
08.09.2020 00:04 14,6 C 13,9 C 13,3 C 80 % 1025,1 hPa 0,0 l/m 0 min 0 min 0 W/m 12,9 km/h (3 Bft) 97,56 %
08.09.2020 00:07 14,7 C 13,9 C 13,3 C 80 % 1025,1 hPa 0,0 l/m 0 min 0 min 0 W/m 12,9 km/h (3 Bft) 98,59 %
08.09.2020 00:08 14,7 C 13,9 C 13,3 C 80 % 1025,1 hPa 0,0 l/m 0 min 0 min 0 W/m 6,4 km/h (2 Bft) 91,30 %
08.09.2020 00:10 14,7 C 13,9 C 13,3 C 80 % 1025,2 hPa 0,0 l/m 0 min 0 min 0 W/m 12,9 km/h (3 Bft) 95,74 %
08.09.2020 00:12 14,6 C 13,9 C 13,3 C 80 % 1025,2 hPa 0,0 l/m 0 min 0 min 0 W/m 6,4 km/h (2 Bft) 97,87 %
08.09.2020 00:14 14,6 C 13,9 C 13,3 C 80 % 1025,2 hPa 0,0 l/m 0 min 0 min 0 W/m 12,9 km/h (3 Bft) 97,83 %
08.09.2020 00:16 14,6 C 13,9 C 13,3 C 80 % 1025,1 hPa 0,0 l/m 0 min 0 min 0 W/m 12,9 km/h (3 Bft) 95,74 %
08.09.2020 00:18 14,7 C 13,9 C 13,3 C 79 % 1025,1 hPa 0,0 l/m 0 min 0 min 0 W/m 6,4 km/h (2 Bft) 95,74 %
08.09.2020 00:20 14,6 C 13,9 C 13,3 C 79 % 1025,1 hPa 0,0 l/m 0 min 0 min 0 W/m 6,4 km/h (2 Bft) 97,87 %
08.09.2020 00:22 14,7 C 13,9 C 13,3 C 79 % 1025,1 hPa 0,0 l/m 0 min 0 min 0 W/m 3,2 km/h (1 Bft) 100,00 %
08.09.2020 00:24 14,6 C 13,9 C 13,3 C 79 % 1025,1 hPa 0,0 l/m 0 min 0 min 0 W/m 6,4 km/h (2 Bft) 100,00 %
08.09.2020 00:26 14,6 C 13,9 C 13,3 C 79 % 1025,1 hPa 0,0 l/m 0 min 0 min 0 W/m 6,4 km/h (2 Bft) 100,00 %
08.09.2020 00:28 14,6 C 13,9 C 13,3 C 79 % 1025,1 hPa 0,0 l/m 0 min 0 min 0 W/m 6,4 km/h (2 Bft) 100,00 %
08.09.2020 00:30 14,6 C 13,9 C 13,3 C 80 % 1025,1 hPa 0,0 l/m 0 min 0 min 0 W/m 6,4 km/h (2 Bft) 100,00 %
08.09.2020 00:32 14,6 C 13,9 C 13,3 C 80 % 1025,1 hPa 0,0 l/m 0 min 0 min 0 W/m 9,7 km/h (2 Bft) 100,00 %
08.09.2020 00:34 14,6 C 13,9 C 13,3 C 80 % 1025,1 hPa 0,0 l/m 0 min 0 min 0 W/m 6,4 km/h (2 Bft) 100,00 %
08.09.2020 00:36 14,6 C 13,9 C 13,3 C 80 % 1025,1 hPa 0,0 l/m 0 min 0 min 0 W/m 9,7 km/h (2 Bft) 97,87 %
08.09.2020 00:38 14,6 C 13,9 C 13,3 C 80 % 1025,1 hPa 0,0 l/m 0 min 0 min 0 W/m 9,7 km/h (2 Bft) 97,83 %
08.09.2020 00:40 14,6 C 13,3 C 12,8 C 80 % 1025,1 hPa 0,0 l/m 0 min 0 min 0 W/m 3,2 km/h (1 Bft) 100,00 %
08.09.2020 00:42 14,6 C 13,3 C 12,8 C 80 % 1025,1 hPa 0,0 l/m 0 min 0 min 0 W/m 3,2 km/h (1 Bft) 100,00 %
08.09.2020 00:44 14,6 C 13,3 C 12,8 C 80 % 1025,1 hPa 0,0 l/m 0 min 0 min 0 W/m 6,4 km/h (2 Bft) 100,00 %
08.09.2020 00:46 14,6 C 13,3 C 12,8 C 80 % 1025,2 hPa 0,0 l/m 0 min 0 min 0 W/m 3,2 km/h (1 Bft) 97,87 %
08.09.2020 00:48 14,6 C 13,3 C 12,8 C 80 % 1025,2 hPa 0,0 l/m 0 min 0 min 0 W/m 3,2 km/h (1 Bft) 100,00 %
08.09.2020 00:50 14,6 C 13,3 C 12,8 C 80 % 1025,2 hPa 0,0 l/m 0 min 0 min 0 W/m 3,2 km/h (1 Bft) 100,00 %
08.09.2020 00:52 14,6 C 13,3 C 12,8 C 80 % 1025,2 hPa 0,0 l/m 0 min 0 min 0 W/m 6,4 km/h (2 Bft) 97,87 %
08.09.2020 00:54 14,5 C 13,3 C 12,8 C 80 % 1025,2 hPa 0,0 l/m 0 min 0 min 0 W/m 3,2 km/h (1 Bft) 97,87 %
08.09.2020 00:56 14,5 C 13,3 C 12,8 C 80 % 1025,3 hPa 0,0 l/m 0 min 0 min 0 W/m 3,2 km/h (1 Bft) 97,87 %
08.09.2020 00:58 14,4 C 12,8 C 12,2 C 80 % 1025,2 hPa 0,0 l/m 0 min 0 min 0 W/m 0,0 km/h (0 Bft) 95,74 %
08.09.2020 01:00 14,4 C 12,8 C 12,2 C 80 % 1025,2 hPa 0,0 l/m 0 min 0 min 0 W/m 0,0 km/h (0 Bft) 97,83 %
08.09.2020 01:02 14,4 C 12,8 C 12,2 C 80 % 1025,2 hPa 0,0 l/m 0 min 0 min 0 W/m 6,4 km/h (2 Bft) 97,87 %
08.09.2020 01:04 14,4 C 13,3 C 12,8 C 80 % 1025,3 hPa 0,0 l/m 0 min 0 min 0 W/m 6,4 km/h (2 Bft) 97,87 %
08.09.2020 01:06 14,4 C 13,3 C 12,8 C 80 % 1025,2 hPa 0,0 l/m 0 min 0 min 0 W/m 6,4 km/h (2 Bft) 95,74 %
08.09.2020 01:08 14,3 C 13,3 C 12,8 C 80 % 1025,1 hPa 0,0 l/m 0 min 0 min 0 W/m 3,2 km/h (1 Bft) 97,87 %
08.09.2020 01:10 14,3 C 13,3 C 12,8 C 80 % 1025,2 hPa 0,0 l/m 0 min 0 min 0 W/m 3,2 km/h (1 Bft) 97,87 %
08.09.2020 01:12 14,3 C 13,3 C 12,8 C 80 % 1025,2 hPa 0,0 l/m 0 min 0 min 0 W/m 3,2 km/h (1 Bft) 97,83 %
08.09.2020 01:14 14,3 C 13,3 C 12,8 C 80 % 1025,0 hPa 0,0 l/m 0 min 0 min 0 W/m 9,7 km/h (2 Bft) 95,74 %
08.09.2020 01:16 14,3 C 13,3 C 12,8 C 80 % 1025,0 hPa 0,0 l/m 0 min 0 min 0 W/m 6,4 km/h (2 Bft) 97,87 %
08.09.2020 01:18 14,3 C 13,3 C 12,8 C 80 % 1025,0 hPa 0,0 l/m 0 min 0 min 0 W/m 3,2 km/h (1 Bft) 95,74 %
08.09.2020 01:20 14,3 C 13,3 C 12,8 C 80 % 1025,0 hPa 0,0 l/m 0 min 0 min 0 W/m 6,4 km/h (2 Bft) 95,74 %
08.09.2020 01:22 14,3 C 13,3 C 12,8 C 80 % 1024,9 hPa 0,0 l/m 0 min 0 min 0 W/m 6,4 km/h (2 Bft) 97,87 %
08.09.2020 01:24 14,3 C 13,3 C 12,8 C 80 % 1024,9 hPa 0,0 l/m 0 min 0 min 0 W/m 3,2 km/h (1 Bft) 97,83 %
08.09.2020 01:26 14,3 C 13,3 C 12,8 C 81 % 1024,9 hPa 0,0 l/m 0 min 0 min 0 W/m 6,4 km/h (2 Bft) 97,87 %
08.09.2020 01:28 14,3 C 13,3 C 12,8 C 81 % 1024,9 hPa 0,0 l/m 0 min 0 min 0 W/m 3,2 km/h (1 Bft) 95,74 %
08.09.2020 01:30 14,3 C 13,3 C 12,8 C 81 % 1024,9 hPa 0,0 l/m 0 min 0 min 0 W/m 6,4 km/h (2 Bft) 97,87 %
08.09.2020 01:32 14,3 C 13,3 C 12,8 C 81 % 1024,9 hPa 0,0 l/m 0 min 0 min 0 W/m 3,2 km/h (1 Bft) 97,87 %
08.09.2020 01:34 14,3 C 13,3 C 12,8 C 81 % 1024,9 hPa 0,0 l/m 0 min 0 min 0 W/m 3,2 km/h (1 Bft) 100,00 %
08.09.2020 01:36 14,3 C 13,3 C 12,8 C 81 % 1024,9 hPa 0,0 l/m 0 min 0 min 0 W/m 6,4 km/h (2 Bft) 100,00 %
08.09.2020 01:38 14,2 C 12,8 C 12,8 C 81 % 1024,9 hPa 0,0 l/m 0 min 0 min 0 W/m 6,4 km/h (2 Bft) 100,00 %
08.09.2020 01:40 14,2 C 13,3 C 12,8 C 81 % 1024,9 hPa 0,0 l/m 0 min 0 min 0 W/m 6,4 km/h (2 Bft) 97,96 %
08.09.2020 01:42 14,2 C 13,3 C 12,8 C 81 % 1024,9 hPa 0,0 l/m 0 min 0 min 0 W/m 6,4 km/h (2 Bft) 100,00 %
08.09.2020 01:44 14,2 C 12,8 C 12,8 C 81 % 1024,9 hPa 0,0 l/m 0 min 0 min 0 W/m 6,4 km/h (2 Bft) 100,00 %
08.09.2020 01:46 14,1 C 12,8 C 12,8 C 81 % 1024,9 hPa 0,0 l/m 0 min 0 min 0 W/m 6,4 km/h (2 Bft) 100,00 %
08.09.2020 01:48 14,1 C 12,8 C 12,8 C 81 % 1024,9 hPa 0,0 l/m 0 min 0 min 0 W/m 6,4 km/h (2 Bft) 100,00 %
08.09.2020 01:50 14,1 C 12,8 C 12,8 C 81 % 1024,9 hPa 0,0 l/m 0 min 0 min 0 W/m 6,4 km/h (2 Bft) 100,00 %
08.09.2020 01:52 14,1 C 12,8 C 12,8 C 81 % 1024,9 hPa 0,0 l/m 0 min 0 min 0 W/m 3,2 km/h (1 Bft) 97,87 %
08.09.2020 01:54 14,1 C 12,8 C 12,8 C 81 % 1024,9 hPa 0,0 l/m 0 min 0 min 0 W/m 6,4 km/h (2 Bft) 100,00 %
08.09.2020 01:56 14,1 C 12,8 C 12,8 C 82 % 1024,9 hPa 0,0 l/m 0 min 0 min 0 W/m 6,4 km/h (2 Bft) 100,00 %
08.09.2020 01:58 14,1 C 12,8 C 12,8 C 82 % 1024,8 hPa 0,0 l/m 0 min 0 min 0 W/m 9,7 km/h (2 Bft) 100,00 %
08.09.2020 02:00 14,1 C 12,8 C 12,8 C 82 % 1024,8 hPa 0,0 l/m 0 min 0 min 0 W/m 9,7 km/h (2 Bft) 100,00 %
08.09.2020 02:02 14,0 C 12,8 C 12,8 C 82 % 1024,8 hPa 0,0 l/m 0 min 0 min 0 W/m 6,4 km/h (2 Bft) 100,00 %
08.09.2020 02:04 14,0 C 12,8 C 12,8 C 82 % 1024,8 hPa 0,0 l/m 0 min 0 min 0 W/m 9,7 km/h (2 Bft) 100,00 %
08.09.2020 02:06 14,0 C 12,8 C 12,8 C 82 % 1024,8 hPa 0,0 l/m 0 min 0 min 0 W/m 9,7 km/h (2 Bft) 100,00 %
08.09.2020 02:08 13,9 C 12,8 C 12,8 C 82 % 1024,8 hPa 0,0 l/m 0 min 0 min 0 W/m 9,7 km/h (2 Bft) 100,00 %
08.09.2020 02:10 13,9 C 12,8 C 12,8 C 82 % 1024,8 hPa 0,0 l/m 0 min 0 min 0 W/m 12,9 km/h (3 Bft) 100,00 %
08.09.2020 02:12 13,9 C 12,8 C 12,8 C 82 % 1024,7 hPa 0,0 l/m 0 min 0 min 0 W/m 12,9 km/h (3 Bft) 100,00 %
08.09.2020 02:14 13,9 C 13,3 C 12,8 C 82 % 1024,7 hPa 0,0 l/m 0 min 0 min 0 W/m 16,1 km/h (3 Bft) 97,87 %
08.09.2020 02:16 13,9 C 12,8 C 12,8 C 82 % 1024,7 hPa 0,0 l/m 0 min 0 min 0 W/m 12,9 km/h (3 Bft) 100,00 %
08.09.2020 02:18 13,9 C 12,8 C 12,8 C 82 % 1024,7 hPa 0,0 l/m 0 min 0 min 0 W/m 16,1 km/h (3 Bft) 100,00 %
08.09.2020 02:20 13,9 C 12,8 C 12,8 C 82 % 1024,7 hPa 0,0 l/m 0 min 0 min 0 W/m 19,3 km/h (3 Bft) 95,74 %
08.09.2020 02:22 13,9 C 12,8 C 12,8 C 82 % 1024,7 hPa 0,0 l/m 0 min 0 min 0 W/m 12,9 km/h (3 Bft) 97,83 %
08.09.2020 02:24 13,9 C 12,8 C 12,8 C 82 % 1024,7 hPa 0,0 l/m 0 min 0 min 0 W/m 12,9 km/h (3 Bft) 97,87 %
08.09.2020 02:26 13,9 C 12,8 C 12,8 C 82 % 1024,7 hPa 0,0 l/m 0 min 0 min 0 W/m 12,9 km/h (3 Bft) 97,87 %
08.09.2020 02:28 13,9 C 12,8 C 12,8 C 82 % 1024,7 hPa 0,0 l/m 0 min 0 min 0 W/m 12,9 km/h (3 Bft) 95,74 %
08.09.2020 02:30 13,8 C 12,8 C 12,8 C 82 % 1024,7 hPa 0,0 l/m 0 min 0 min 0 W/m 16,1 km/h (3 Bft) 95,74 %
08.09.2020 02:32 13,8 C 12,8 C 12,8 C 82 % 1024,7 hPa 0,0 l/m 0 min 0 min 0 W/m 16,1 km/h (3 Bft) 95,74 %
08.09.2020 02:34 13,8 C 12,8 C 12,8 C 82 % 1024,7 hPa 0,0 l/m 0 min 0 min 0 W/m 16,1 km/h (3 Bft) 93,48 %
08.09.2020 02:36 13,8 C 12,8 C 12,8 C 82 % 1024,7 hPa 0,0 l/m 0 min 0 min 0 W/m 12,9 km/h (3 Bft) 93,62 %
08.09.2020 02:38 13,8 C 12,8 C 12,8 C 82 % 1024,7 hPa 0,0 l/m 0 min 0 min 0 W/m 16,1 km/h (3 Bft) 95,74 %
08.09.2020 02:40 13,8 C 12,8 C 12,8 C 82 % 1024,7 hPa 0,0 l/m 0 min 0 min 0 W/m 6,4 km/h (2 Bft) 95,74 %
08.09.2020 02:42 13,8 C 12,8 C 12,8 C 82 % 1024,7 hPa 0,0 l/m 0 min 0 min 0 W/m 9,7 km/h (2 Bft) 95,74 %
08.09.2020 02:44 13,8 C 12,8 C 12,8 C 82 % 1024,7 hPa 0,0 l/m 0 min 0 min 0 W/m 6,4 km/h (2 Bft) 95,74 %
08.09.2020 02:46 13,8 C 12,8 C 12,8 C 82 % 1024,8 hPa 0,0 l/m 0 min 0 min 0 W/m 6,4 km/h (2 Bft) 95,65 %
08.09.2020 02:48 13,8 C 12,8 C 12,2 C 82 % 1024,8 hPa 0,0 l/m 0 min 0 min 0 W/m 6,4 km/h (2 Bft) 95,74 %
08.09.2020 02:50 13,8 C 12,8 C 12,2 C 82 % 1024,8 hPa 0,0 l/m 0 min 0 min 0 W/m 9,7 km/h (2 Bft) 95,74 %
08.09.2020 02:52 13,8 C 12,8 C 12,2 C 82 % 1024,8 hPa 0,0 l/m 0 min 0 min 0 W/m 12,9 km/h (3 Bft) 95,74 %
08.09.2020 02:54 13,8 C 12,8 C 12,2 C 82 % 1024,8 hPa 0,0 l/m 0 min 0 min 0 W/m 12,9 km/h (3 Bft) 93,62 %
08.09.2020 02:56 13,8 C 12,8 C 12,2 C 82 % 1024,8 hPa 0,0 l/m 0 min 0 min 0 W/m 16,1 km/h (3 Bft) 93,48 %
08.09.2020 02:58 13,8 C 12,8 C 12,2 C 82 % 1024,8 hPa 0,0 l/m 0 min 0 min 0 W/m 9,7 km/h (2 Bft) 95,74 %
08.09.2020 03:00 13,8 C 12,8 C 12,2 C 82 % 1024,8 hPa 0,0 l/m 0 min 0 min 0 W/m 9,7 km/h (2 Bft) 93,62 %
08.09.2020 03:02 13,8 C 12,8 C 12,2 C 82 % 1024,8 hPa 0,0 l/m 0 min 0 min 0 W/m 6,4 km/h (2 Bft) 91,49 %
08.09.2020 03:04 13,8 C 12,8 C 12,2 C 82 % 1024,7 hPa 0,0 l/m 0 min 0 min 0 W/m 9,7 km/h (2 Bft) 93,62 %
08.09.2020 03:06 13,7 C 12,8 C 12,2 C 82 % 1024,7 hPa 0,0 l/m 0 min 0 min 0 W/m 9,7 km/h (2 Bft) 93,62 %
08.09.2020 03:08 13,7 C 12,8 C 12,2 C 82 % 1024,7 hPa 0,0 l/m 0 min 0 min 0 W/m 9,7 km/h (2 Bft) 95,65 %
08.09.2020 03:10 13,7 C 12,8 C 12,2 C 82 % 1024,7 hPa 0,0 l/m 0 min 0 min 0 W/m 6,4 km/h (2 Bft) 93,62 %
08.09.2020 03:12 13,7 C 12,8 C 12,2 C 82 % 1024,7 hPa 0,0 l/m 0 min 0 min 0 W/m 6,4 km/h (2 Bft) 95,74 %
08.09.2020 03:14 13,7 C 12,8 C 12,2 C 82 % 1024,8 hPa 0,0 l/m 0 min 0 min 0 W/m 9,7 km/h (2 Bft) 93,62 %
08.09.2020 03:16 13,7 C 12,8 C 12,2 C 82 % 1024,8 hPa 0,0 l/m 0 min 0 min 0 W/m 9,7 km/h (2 Bft) 95,74 %
08.09.2020 03:18 13,7 C 12,8 C 12,2 C 82 % 1024,8 hPa 0,0 l/m 0 min 0 min 0 W/m 6,4 km/h (2 Bft) 95,74 %
08.09.2020 03:20 13,7 C 12,8 C 12,2 C 82 % 1024,9 hPa 0,0 l/m 0 min 0 min 0 W/m 9,7 km/h (2 Bft) 95,65 %
08.09.2020 03:22 13,7 C 12,8 C 12,2 C 82 % 1024,8 hPa 0,0 l/m 0 min 0 min 0 W/m 12,9 km/h (3 Bft) 95,74 %
08.09.2020 03:24 13,6 C 12,8 C 12,2 C 82 % 1024,8 hPa 0,0 l/m 0 min 0 min 0 W/m 12,9 km/h (3 Bft) 95,74 %
08.09.2020 03:26 13,6 C 12,8 C 12,2 C 82 % 1024,8 hPa 0,0 l/m 0 min 0 min 0 W/m 6,4 km/h (2 Bft) 93,62 %
08.09.2020 03:28 13,6 C 12,8 C 12,2 C 82 % 1024,8 hPa 0,0 l/m 0 min 0 min 0 W/m 6,4 km/h (2 Bft) 97,87 %
08.09.2020 03:30 13,6 C 12,8 C 12,2 C 82 % 1024,8 hPa 0,0 l/m 0 min 0 min 0 W/m 6,4 km/h (2 Bft) 97,87 %
08.09.2020 03:32 13,6 C 12,2 C 12,2 C 82 % 1024,8 hPa 0,0 l/m 0 min 0 min 0 W/m 3,2 km/h (1 Bft) 95,65 %
08.09.2020 03:34 13,6 C 12,2 C 12,2 C 82 % 1024,8 hPa 0,0 l/m 0 min 0 min 0 W/m 6,4 km/h (2 Bft) 97,87 %
08.09.2020 03:36 13,6 C 12,2 C 12,2 C 82 % 1024,7 hPa 0,0 l/m 0 min 0 min 0 W/m 12,9 km/h (3 Bft) 93,62 %
08.09.2020 03:38 13,6 C 12,2 C 12,2 C 82 % 1024,6 hPa 0,0 l/m 0 min 0 min 0 W/m 6,4 km/h (2 Bft) 97,87 %
08.09.2020 03:40 13,6 C 12,2 C 12,2 C 83 % 1024,6 hPa 0,0 l/m 0 min 0 min 0 W/m 6,4 km/h (2 Bft) 97,87 %
08.09.2020 03:42 13,6 C 12,2 C 12,2 C 83 % 1024,6 hPa 0,0 l/m 0 min 0 min 0 W/m 9,7 km/h (2 Bft) 95,65 %
08.09.2020 03:44 13,6 C 12,2 C 12,2 C 83 % 1024,6 hPa 0,0 l/m 0 min 0 min 0 W/m 6,4 km/h (2 Bft) 97,87 %
08.09.2020 03:46 13,5 C 12,2 C 12,2 C 83 % 1024,6 hPa 0,0 l/m 0 min 0 min 0 W/m 6,4 km/h (2 Bft) 95,74 %
08.09.2020 03:48 13,5 C 12,2 C 12,2 C 83 % 1024,6 hPa 0,0 l/m 0 min 0 min 0 W/m 9,7 km/h (2 Bft) 97,87 %
08.09.2020 03:50 13,5 C 12,2 C 12,2 C 82 % 1024,7 hPa 0,0 l/m 0 min 0 min 0 W/m 6,4 km/h (2 Bft) 97,87 %
08.09.2020 03:52 13,5 C 12,2 C 12,2 C 82 % 1024,6 hPa 0,0 l/m 0 min 0 min 0 W/m 6,4 km/h (2 Bft) 97,87 %
08.09.2020 03:54 13,4 C 12,2 C 12,2 C 82 % 1024,6 hPa 0,0 l/m 0 min 0 min 0 W/m 9,7 km/h (2 Bft) 97,83 %
08.09.2020 03:56 13,4 C 12,2 C 12,2 C 82 % 1024,7 hPa 0,0 l/m 0 min 0 min 0 W/m 6,4 km/h (2 Bft) 97,87 %
08.09.2020 03:58 13,4 C 12,2 C 12,2 C 82 % 1024,7 hPa 0,0 l/m 0 min 0 min 0 W/m 12,9 km/h (3 Bft) 97,87 %
08.09.2020 04:00 13,4 C 12,2 C 12,2 C 83 % 1024,7 hPa 0,0 l/m 0 min 0 min 0 W/m 9,7 km/h (2 Bft) 97,87 %
08.09.2020 04:02 13,4 C 12,2 C 12,2 C 83 % 1024,8 hPa 0,0 l/m 0 min 0 min 0 W/m 9,7 km/h (2 Bft) 100,00 %
08.09.2020 04:04 13,4 C 12,2 C 12,2 C 83 % 1024,8 hPa 0,0 l/m 0 min 0 min 0 W/m 9,7 km/h (2 Bft) 100,00 %
08.09.2020 04:06 13,4 C 12,2 C 12,2 C 83 % 1024,8 hPa 0,0 l/m 0 min 0 min 0 W/m 6,4 km/h (2 Bft) 100,00 %
08.09.2020 04:08 13,4 C 12,2 C 12,2 C 83 % 1024,9 hPa 0,0 l/m 0 min 0 min 0 W/m 16,1 km/h (3 Bft) 100,00 %
08.09.2020 04:10 13,4 C 12,2 C 12,2 C 83 % 1024,9 hPa 0,0 l/m 0 min 0 min 0 W/m 16,1 km/h (3 Bft) 100,00 %
08.09.2020 04:12 13,3 C 12,2 C 12,2 C 83 % 1024,9 hPa 0,0 l/m 0 min 0 min 0 W/m 6,4 km/h (2 Bft) 100,00 %
08.09.2020 04:14 13,3 C 12,2 C 12,2 C 83 % 1024,9 hPa 0,0 l/m 0 min 0 min 0 W/m 6,4 km/h (2 Bft) 97,87 %
08.09.2020 04:16 13,3 C 12,2 C 12,2 C 83 % 1025,0 hPa 0,0 l/m 0 min 0 min 0 W/m 12,9 km/h (3 Bft) 100,00 %
08.09.2020 04:18 13,3 C 12,2 C 12,2 C 83 % 1025,0 hPa 0,0 l/m 0 min 0 min 0 W/m 6,4 km/h (2 Bft) 100,00 %
08.09.2020 04:20 13,3 C 12,2 C 11,7 C 83 % 1024,9 hPa 0,0 l/m 0 min 0 min 0 W/m 6,4 km/h (2 Bft) 100,00 %
08.09.2020 04:22 13,3 C 12,2 C 11,7 C 83 % 1024,9 hPa 0,0 l/m 0 min 0 min 0 W/m 12,9 km/h (3 Bft) 97,87 %
08.09.2020 04:24 13,3 C 12,2 C 11,7 C 83 % 1024,9 hPa 0,0 l/m 0 min 0 min 0 W/m 12,9 km/h (3 Bft) 100,00 %
08.09.2020 04:26 13,3 C 12,2 C 11,7 C 83 % 1024,9 hPa 0,0 l/m 0 min 0 min 0 W/m 6,4 km/h (2 Bft) 100,00 %
08.09.2020 04:28 13,3 C 12,2 C 12,2 C 83 % 1025,0 hPa 0,0 l/m 0 min 0 min 0 W/m 6,4 km/h (2 Bft) 100,00 %
08.09.2020 04:30 13,3 C 12,2 C 11,7 C 83 % 1025,0 hPa 0,0 l/m 0 min 0 min 0 W/m 6,4 km/h (2 Bft) 100,00 %
08.09.2020 04:32 13,3 C 12,2 C 11,7 C 83 % 1025,0 hPa 0,0 l/m 0 min 0 min 0 W/m 12,9 km/h (3 Bft) 100,00 %
08.09.2020 04:34 13,3 C 12,2 C 11,7 C 83 % 1025,0 hPa 0,0 l/m 0 min 0 min 0 W/m 16,1 km/h (3 Bft) 100,00 %
08.09.2020 04:36 13,2 C 12,2 C 11,7 C 83 % 1025,0 hPa 0,0 l/m 0 min 0 min 0 W/m 12,9 km/h (3 Bft) 97,87 %
08.09.2020 04:38 13,2 C 12,2 C 11,7 C 83 % 1025,0 hPa 0,0 l/m 0 min 0 min 0 W/m 16,1 km/h (3 Bft) 100,00 %
08.09.2020 04:40 13,2 C 12,2 C 11,7 C 84 % 1025,0 hPa 0,0 l/m 0 min 0 min 0 W/m 16,1 km/h (3 Bft) 100,00 %
08.09.2020 04:42 13,2 C 12,2 C 12,2 C 84 % 1025,0 hPa 0,0 l/m 0 min 0 min 0 W/m 9,7 km/h (2 Bft) 97,83 %
08.09.2020 04:44 13,2 C 12,2 C 12,2 C 84 % 1025,0 hPa 0,0 l/m 0 min 0 min 0 W/m 9,7 km/h (2 Bft) 100,00 %
08.09.2020 04:46 13,2 C 12,2 C 12,2 C 84 % 1024,9 hPa 0,0 l/m 0 min 0 min 0 W/m 9,7 km/h (2 Bft) 100,00 %
08.09.2020 04:48 13,2 C 12,2 C 11,7 C 84 % 1024,9 hPa 0,0 l/m 0 min 0 min 0 W/m 6,4 km/h (2 Bft) 100,00 %
08.09.2020 04:50 13,2 C 12,2 C 11,7 C 84 % 1024,9 hPa 0,0 l/m 0 min 0 min 0 W/m 6,4 km/h (2 Bft) 97,87 %
08.09.2020 04:52 13,2 C 12,2 C 11,7 C 84 % 1024,8 hPa 0,0 l/m 0 min 0 min 0 W/m 6,4 km/h (2 Bft) 100,00 %
08.09.2020 04:54 13,2 C 12,2 C 11,7 C 84 % 1024,8 hPa 0,0 l/m 0 min 0 min 0 W/m 6,4 km/h (2 Bft) 100,00 %
08.09.2020 04:56 13,1 C 12,2 C 11,7 C 84 % 1024,9 hPa 0,0 l/m 0 min 0 min 0 W/m 6,4 km/h (2 Bft) 100,00 %
08.09.2020 04:58 13,2 C 12,2 C 11,7 C 84 % 1024,9 hPa 0,0 l/m 0 min 0 min 0 W/m 9,7 km/h (2 Bft) 100,00 %
08.09.2020 05:00 13,1 C 12,2 C 11,7 C 84 % 1024,9 hPa 0,0 l/m 0 min 0 min 0 W/m 6,4 km/h (2 Bft) 100,00 %
08.09.2020 05:02 13,1 C 12,2 C 11,7 C 84 % 1024,9 hPa 0,0 l/m 0 min 0 min 0 W/m 6,4 km/h (2 Bft) 100,00 %
08.09.2020 05:04 13,1 C 12,2 C 11,7 C 84 % 1025,0 hPa 0,0 l/m 0 min 0 min 0 W/m 3,2 km/h (1 Bft) 100,00 %
08.09.2020 05:06 13,1 C 12,2 C 11,7 C 84 % 1025,0 hPa 0,0 l/m 0 min 0 min 0 W/m 0,0 km/h (0 Bft) 100,00 %
08.09.2020 05:08 13,1 C 12,2 C 11,7 C 84 % 1025,1 hPa 0,0 l/m 0 min 0 min 0 W/m 0,0 km/h (0 Bft) 100,00 %
08.09.2020 05:10 13,1 C 12,2 C 11,7 C 84 % 1025,1 hPa 0,0 l/m 0 min 0 min 0 W/m 0,0 km/h (0 Bft) 100,00 %
08.09.2020 05:12 13,1 C 11,7 C 11,7 C 84 % 1025,1 hPa 0,0 l/m 0 min 0 min 0 W/m 0,0 km/h (0 Bft) 97,87 %
08.09.2020 05:14 13,1 C 11,7 C 11,7 C 84 % 1025,2 hPa 0,0 l/m 0 min 0 min 0 W/m 0,0 km/h (0 Bft) 97,87 %
08.09.2020 05:16 13,1 C 11,7 C 11,7 C 84 % 1025,2 hPa 0,0 l/m 0 min 0 min 0 W/m 3,2 km/h (1 Bft) 97,83 %
08.09.2020 05:18 13,1 C 11,7 C 11,7 C 84 % 1025,2 hPa 0,0 l/m 0 min 0 min 0 W/m 3,2 km/h (1 Bft) 97,87 %
08.09.2020 05:20 13,1 C 11,7 C 11,7 C 84 % 1025,2 hPa 0,0 l/m 0 min 0 min 0 W/m 6,4 km/h (2 Bft) 100,00 %
08.09.2020 05:22 13,1 C 11,7 C 11,7 C 84 % 1025,2 hPa 0,0 l/m 0 min 0 min 0 W/m 6,4 km/h (2 Bft) 97,87 %
08.09.2020 05:24 13,0 C 11,7 C 11,7 C 84 % 1025,2 hPa 0,0 l/m 0 min 0 min 0 W/m 3,2 km/h (1 Bft) 97,87 %
08.09.2020 05:26 13,0 C 11,7 C 11,7 C 84 % 1025,3 hPa 0,0 l/m 0 min 0 min 0 W/m 6,4 km/h (2 Bft) 97,87 %
08.09.2020 05:28 13,0 C 12,2 C 11,7 C 84 % 1025,3 hPa 0,0 l/m 0 min 0 min 0 W/m 0,0 km/h (0 Bft) 97,83 %
08.09.2020 05:30 13,0 C 11,7 C 11,7 C 84 % 1025,2 hPa 0,0 l/m 0 min 0 min 0 W/m 3,2 km/h (1 Bft) 95,74 %
08.09.2020 05:32 12,9 C 11,7 C 11,7 C 84 % 1025,2 hPa 0,0 l/m 0 min 0 min 0 W/m 0,0 km/h (0 Bft) 95,74 %
08.09.2020 05:34 12,9 C 11,7 C 11,7 C 84 % 1025,2 hPa 0,0 l/m 0 min 0 min 0 W/m 3,2 km/h (1 Bft) 97,87 %
08.09.2020 05:36 12,9 C 11,7 C 11,7 C 84 % 1025,1 hPa 0,0 l/m 0 min 0 min 0 W/m 6,4 km/h (2 Bft) 97,87 %
08.09.2020 05:38 12,9 C 11,7 C 11,7 C 85 % 1025,2 hPa 0,0 l/m 0 min 0 min 0 W/m 3,2 km/h (1 Bft) 97,87 %
08.09.2020 05:40 12,9 C 11,7 C 11,7 C 85 % 1025,2 hPa 0,0 l/m 0 min 0 min 0 W/m 3,2 km/h (1 Bft) 97,83 %
08.09.2020 05:42 12,9 C 11,7 C 11,7 C 84 % 1025,1 hPa 0,0 l/m 0 min 0 min 0 W/m 3,2 km/h (1 Bft) 95,74 %
08.09.2020 05:44 12,9 C 11,7 C 11,7 C 85 % 1025,1 hPa 0,0 l/m 0 min 0 min 0 W/m 6,4 km/h (2 Bft) 97,87 %
08.09.2020 05:46 12,9 C 11,7 C 11,7 C 85 % 1025,1 hPa 0,0 l/m 0 min 0 min 0 W/m 3,2 km/h (1 Bft) 95,74 %
08.09.2020 05:48 12,8 C 11,7 C 11,7 C 85 % 1025,1 hPa 0,0 l/m 0 min 0 min 0 W/m 0,0 km/h (0 Bft) 95,74 %
08.09.2020 05:50 12,8 C 11,7 C 11,7 C 85 % 1025,1 hPa 0,0 l/m 0 min 0 min 0 W/m 3,2 km/h (1 Bft) 93,62 %
08.09.2020 05:52 12,8 C 11,7 C 11,1 C 85 % 1025,1 hPa 0,0 l/m 0 min 0 min 0 W/m 3,2 km/h (1 Bft) 93,48 %
08.09.2020 05:54 12,8 C 11,7 C 11,1 C 85 % 1025,1 hPa 0,0 l/m 0 min 0 min 0 W/m 6,4 km/h (2 Bft) 95,74 %
08.09.2020 05:56 12,8 C 11,7 C 11,1 C 85 % 1025,1 hPa 0,0 l/m 0 min 0 min 0 W/m 3,2 km/h (1 Bft) 95,74 %
08.09.2020 05:58 12,8 C 11,7 C 11,1 C 85 % 1025,1 hPa 0,0 l/m 0 min 0 min 0 W/m 6,4 km/h (2 Bft) 95,74 %
08.09.2020 06:00 12,8 C 11,7 C 11,1 C 85 % 1025,1 hPa 0,0 l/m 0 min 0 min 0 W/m 3,2 km/h (1 Bft) 95,74 %
08.09.2020 06:02 12,8 C 11,7 C 11,1 C 85 % 1025,1 hPa 0,0 l/m 0 min 0 min 0 W/m 6,4 km/h (2 Bft) 95,56 %
08.09.2020 06:04 12,8 C 11,7 C 11,1 C 85 % 1025,1 hPa 0,0 l/m 0 min 0 min 0 W/m 6,4 km/h (2 Bft) 91,49 %
08.09.2020 06:08 12,7 C 11,7 C 11,1 C 85 % 1025,1 hPa 0,0 l/m 0 min 0 min 0 W/m 3,2 km/h (1 Bft) 95,74 %
08.09.2020 06:10 12,7 C 11,7 C 11,1 C 85 % 1025,0 hPa 0,0 l/m 0 min 0 min 0 W/m 0,0 km/h (0 Bft) 95,74 %
08.09.2020 06:12 12,7 C 11,7 C 11,1 C 85 % 1025,0 hPa 0,0 l/m 0 min 0 min 0 W/m 0,0 km/h (0 Bft) 93,62 %
08.09.2020 06:14 12,7 C 11,7 C 11,1 C 86 % 1025,0 hPa 0,0 l/m 0 min 0 min 0 W/m 0,0 km/h (0 Bft) 97,83 %
08.09.2020 06:16 12,7 C 11,7 C 11,1 C 86 % 1025,0 hPa 0,0 l/m 0 min 0 min 0 W/m 0,0 km/h (0 Bft) 95,74 %
08.09.2020 06:18 12,7 C 11,7 C 11,1 C 86 % 1025,0 hPa 0,0 l/m 0 min 0 min 0 W/m 0,0 km/h (0 Bft) 95,74 %
08.09.2020 06:20 12,7 C 11,7 C 11,1 C 86 % 1025,0 hPa 0,0 l/m 0 min 0 min 0 W/m 0,0 km/h (0 Bft) 97,87 %
08.09.2020 06:22 12,7 C 11,7 C 11,1 C 86 % 1025,0 hPa 0,0 l/m 0 min 0 min 0 W/m 0,0 km/h (0 Bft) 91,49 %
08.09.2020 06:24 12,7 C 11,7 C 11,1 C 86 % 1024,9 hPa 0,0 l/m 0 min 0 min 0 W/m 3,2 km/h (1 Bft) 95,74 %
08.09.2020 06:26 12,6 C 11,7 C 11,1 C 86 % 1025,0 hPa 0,0 l/m 0 min 0 min 0 W/m 3,2 km/h (1 Bft) 93,48 %
08.09.2020 06:28 12,6 C 11,7 C 11,1 C 86 % 1025,0 hPa 0,0 l/m 0 min 0 min 0 W/m 6,4 km/h (2 Bft) 97,87 %
08.09.2020 06:30 12,6 C 11,7 C 11,1 C 86 % 1025,0 hPa 0,0 l/m 0 min 0 min 0 W/m 6,4 km/h (2 Bft) 97,87 %
08.09.2020 06:32 12,6 C 11,7 C 11,1 C 86 % 1025,0 hPa 0,0 l/m 0 min 0 min 0 W/m 6,4 km/h (2 Bft) 95,74 %
08.09.2020 06:34 12,6 C 11,7 C 11,1 C 86 % 1025,1 hPa 0,0 l/m 0 min 0 min 0 W/m 3,2 km/h (1 Bft) 93,62 %
08.09.2020 06:36 12,6 C 11,7 C 11,1 C 86 % 1025,1 hPa 0,0 l/m 0 min 0 min 0 W/m 6,4 km/h (2 Bft) 97,87 %
08.09.2020 06:38 12,6 C 11,7 C 11,1 C 86 % 1025,1 hPa 0,0 l/m 0 min 0 min 0 W/m 6,4 km/h (2 Bft) 97,83 %
08.09.2020 06:40 12,6 C 11,7 C 11,1 C 86 % 1025,1 hPa 0,0 l/m 0 min 0 min 0 W/m 6,4 km/h (2 Bft) 97,87 %
08.09.2020 06:42 12,6 C 11,7 C 11,1 C 86 % 1025,1 hPa 0,0 l/m 0 min 0 min 0 W/m 6,4 km/h (2 Bft) 97,87 %
08.09.2020 06:44 12,6 C 11,7 C 11,1 C 87 % 1025,1 hPa 0,0 l/m 0 min 0 min 0 W/m 6,4 km/h (2 Bft) 97,87 %
08.09.2020 06:46 12,6 C 11,7 C 11,7 C 87 % 1025,2 hPa 0,0 l/m 0 min 0 min 0 W/m 6,4 km/h (2 Bft) 97,87 %
08.09.2020 06:48 12,6 C 11,7 C 11,7 C 87 % 1025,1 hPa 0,0 l/m 0 min 0 min 0 W/m 6,4 km/h (2 Bft) 97,87 %
08.09.2020 06:50 12,6 C 11,7 C 11,7 C 87 % 1025,1 hPa 0,0 l/m 0 min 0 min 0 W/m 3,2 km/h (1 Bft) 95,65 %
08.09.2020 06:52 12,6 C 11,7 C 11,7 C 87 % 1025,1 hPa 0,0 l/m 0 min 0 min 0 W/m 3,2 km/h (1 Bft) 95,74 %
08.09.2020 06:54 12,6 C 11,7 C 11,7 C 87 % 1025,2 hPa 0,0 l/m 0 min 0 min 0 W/m 6,4 km/h (2 Bft) 97,87 %
08.09.2020 06:56 12,6 C 11,7 C 11,7 C 87 % 1025,2 hPa 0,0 l/m 0 min 0 min 0 W/m 3,2 km/h (1 Bft) 97,87 %
08.09.2020 06:58 12,6 C 11,7 C 11,7 C 87 % 1025,2 hPa 0,0 l/m 0 min 0 min 0 W/m 6,4 km/h (2 Bft) 95,74 %
08.09.2020 07:00 12,6 C 11,7 C 11,7 C 87 % 1025,2 hPa 0,0 l/m 0 min 0 min 0 W/m 3,2 km/h (1 Bft) 97,87 %
08.09.2020 07:02 12,6 C 12,2 C 11,7 C 87 % 1025,2 hPa 0,0 l/m 0 min 0 min 0 W/m 3,2 km/h (1 Bft) 97,83 %
08.09.2020 07:04 12,6 C 12,2 C 11,7 C 87 % 1025,2 hPa 0,0 l/m 0 min 0 min 3 W/m 3,2 km/h (1 Bft) 95,74 %
08.09.2020 07:06 12,6 C 12,2 C 11,7 C 87 % 1025,1 hPa 0,0 l/m 0 min 0 min 5 W/m 0,0 km/h (0 Bft) 95,74 %
08.09.2020 07:08 12,6 C 12,2 C 11,7 C 88 % 1025,1 hPa 0,0 l/m 0 min 0 min 6 W/m 3,2 km/h (1 Bft) 97,87 %
08.09.2020 07:10 12,6 C 12,2 C 11,7 C 88 % 1025,1 hPa 0,0 l/m 0 min 0 min 7 W/m 3,2 km/h (1 Bft) 97,87 %
08.09.2020 07:12 12,6 C 12,2 C 11,7 C 88 % 1025,2 hPa 0,0 l/m 0 min 0 min 7 W/m 3,2 km/h (1 Bft) 97,83 %
08.09.2020 07:14 12,6 C 12,2 C 11,7 C 88 % 1025,2 hPa 0,0 l/m 0 min 0 min 8 W/m 6,4 km/h (2 Bft) 97,87 %
08.09.2020 07:16 12,6 C 12,2 C 11,7 C 88 % 1025,2 hPa 0,0 l/m 0 min 0 min 9 W/m 6,4 km/h (2 Bft) 97,87 %
08.09.2020 07:18 12,6 C 12,2 C 12,2 C 88 % 1025,2 hPa 0,0 l/m 0 min 0 min 9 W/m 3,2 km/h (1 Bft) 97,87 %
08.09.2020 07:20 12,7 C 12,2 C 12,2 C 88 % 1025,2 hPa 0,0 l/m 0 min 0 min 11 W/m 3,2 km/h (1 Bft) 97,87 %
08.09.2020 07:22 12,7 C 12,8 C 12,2 C 88 % 1025,3 hPa 0,0 l/m 0 min 0 min 11 W/m 6,4 km/h (2 Bft) 97,87 %
08.09.2020 07:24 12,7 C 12,8 C 12,2 C 88 % 1025,2 hPa 0,0 l/m 0 min 0 min 11 W/m 12,9 km/h (3 Bft) 95,65 %
08.09.2020 07:26 12,7 C 12,8 C 12,2 C 88 % 1025,3 hPa 0,0 l/m 0 min 0 min 11 W/m 12,9 km/h (3 Bft) 97,87 %
08.09.2020 07:28 12,8 C 12,8 C 12,2 C 88 % 1025,2 hPa 0,0 l/m 0 min 0 min 11 W/m 6,4 km/h (2 Bft) 97,87 %
08.09.2020 07:30 12,8 C 12,8 C 12,2 C 88 % 1025,3 hPa 0,0 l/m 0 min 0 min 11 W/m 12,9 km/h (3 Bft) 100,00 %
08.09.2020 07:32 12,8 C 12,8 C 12,2 C 88 % 1025,3 hPa 0,0 l/m 0 min 0 min 12 W/m 12,9 km/h (3 Bft) 100,00 %
08.09.2020 07:34 12,8 C 12,8 C 12,2 C 88 % 1025,3 hPa 0,0 l/m 0 min 0 min 15 W/m 16,1 km/h (3 Bft) 100,00 %
08.09.2020 07:36 12,9 C 12,8 C 12,2 C 88 % 1025,3 hPa 0,0 l/m 0 min 0 min 18 W/m 12,9 km/h (3 Bft) 100,00 %
08.09.2020 07:38 12,9 C 12,8 C 12,2 C 88 % 1025,3 hPa 0,0 l/m 0 min 0 min 19 W/m 6,4 km/h (2 Bft) 97,87 %
08.09.2020 07:40 12,9 C 12,8 C 12,2 C 88 % 1025,3 hPa 0,0 l/m 0 min 0 min 21 W/m 12,9 km/h (3 Bft) 100,00 %
08.09.2020 07:42 13,0 C 13,3 C 12,8 C 88 % 1025,2 hPa 0,0 l/m 0 min 0 min 26 W/m 16,1 km/h (3 Bft) 97,87 %
08.09.2020 07:44 13,1 C 13,3 C 12,8 C 88 % 1025,3 hPa 0,0 l/m 0 min 0 min 32 W/m 12,9 km/h (3 Bft) 100,00 %
08.09.2020 07:46 13,1 C 13,3 C 12,8 C 88 % 1025,3 hPa 0,0 l/m 0 min 0 min 33 W/m 9,7 km/h (2 Bft) 100,00 %
08.09.2020 07:48 13,1 C 13,3 C 12,8 C 88 % 1025,2 hPa 0,0 l/m 0 min 0 min 36 W/m 9,7 km/h (2 Bft) 97,83 %
08.09.2020 07:50 13,2 C 13,3 C 12,8 C 89 % 1025,3 hPa 0,0 l/m 0 min 0 min 37 W/m 9,7 km/h (2 Bft) 100,00 %
08.09.2020 07:52 13,2 C 13,3 C 12,8 C 88 % 1025,3 hPa 0,0 l/m 0 min 0 min 39 W/m 12,9 km/h (3 Bft) 100,00 %
08.09.2020 07:54 13,3 C 13,9 C 12,8 C 88 % 1025,2 hPa 0,0 l/m 0 min 0 min 40 W/m 12,9 km/h (3 Bft) 100,00 %
08.09.2020 07:56 13,3 C 13,9 C 12,8 C 88 % 1025,2 hPa 0,0 l/m 0 min 0 min 38 W/m 16,1 km/h (3 Bft) 100,00 %
08.09.2020 07:58 13,4 C 13,9 C 12,8 C 88 % 1025,3 hPa 0,0 l/m 0 min 0 min 36 W/m 16,1 km/h (3 Bft) 100,00 %
08.09.2020 08:00 13,4 C 13,9 C 12,8 C 88 % 1025,2 hPa 0,0 l/m 0 min 0 min 35 W/m 12,9 km/h (3 Bft) 100,00 %
08.09.2020 08:02 13,4 C 13,9 C 12,8 C 88 % 1025,2 hPa 0,0 l/m 0 min 0 min 34 W/m 16,1 km/h (3 Bft) 100,00 %
08.09.2020 08:04 13,6 C 13,9 C 13,3 C 88 % 1025,2 hPa 0,0 l/m 0 min 0 min 33 W/m 6,4 km/h (2 Bft) 100,00 %
08.09.2020 08:06 13,6 C 13,9 C 13,3 C 89 % 1025,3 hPa 0,0 l/m 0 min 0 min 35 W/m 12,9 km/h (3 Bft) 100,00 %
08.09.2020 08:08 13,6 C 13,9 C 13,3 C 89 % 1025,3 hPa 0,0 l/m 0 min 0 min 35 W/m 12,9 km/h (3 Bft) 97,87 %
08.09.2020 08:10 13,7 C 13,9 C 13,3 C 89 % 1025,3 hPa 0,0 l/m 0 min 0 min 36 W/m 6,4 km/h (2 Bft) 100,00 %
08.09.2020 08:12 13,7 C 13,9 C 13,3 C 89 % 1025,3 hPa 0,0 l/m 0 min 0 min 36 W/m 12,9 km/h (3 Bft) 100,00 %
08.09.2020 08:14 13,8 C 13,9 C 13,3 C 88 % 1025,3 hPa 0,0 l/m 0 min 0 min 34 W/m 12,9 km/h (3 Bft) 100,00 %
08.09.2020 08:16 13,8 C 13,9 C 13,3 C 88 % 1025,3 hPa 0,0 l/m 0 min 0 min 32 W/m 16,1 km/h (3 Bft) 97,87 %
08.09.2020 08:18 13,9 C 13,9 C 13,3 C 88 % 1025,3 hPa 0,0 l/m 0 min 0 min 34 W/m 9,7 km/h (2 Bft) 95,74 %
08.09.2020 08:20 13,9 C 13,9 C 13,3 C 88 % 1025,4 hPa 0,0 l/m 0 min 0 min 33 W/m 19,3 km/h (3 Bft) 97,87 %
08.09.2020 08:22 14,0 C 13,9 C 13,3 C 88 % 1025,3 hPa 0,0 l/m 0 min 0 min 32 W/m 12,9 km/h (3 Bft) 93,48 %
08.09.2020 08:24 14,0 C 13,9 C 13,3 C 88 % 1025,4 hPa 0,0 l/m 0 min 0 min 37 W/m 16,1 km/h (3 Bft) 93,62 %
08.09.2020 08:26 14,1 C 14,4 C 13,3 C 88 % 1025,4 hPa 0,0 l/m 0 min 0 min 46 W/m 9,7 km/h (2 Bft) 95,74 %
08.09.2020 08:28 14,1 C 14,4 C 13,3 C 88 % 1025,4 hPa 0,0 l/m 0 min 0 min 62 W/m 9,7 km/h (2 Bft) 95,74 %
08.09.2020 08:30 14,2 C 14,4 C 13,3 C 88 % 1025,4 hPa 0,0 l/m 0 min 0 min 78 W/m 9,7 km/h (2 Bft) 95,74 %
08.09.2020 08:32 14,3 C 14,4 C 13,9 C 88 % 1025,5 hPa 0,0 l/m 0 min 0 min 80 W/m 19,3 km/h (3 Bft) 91,49 %
08.09.2020 08:34 14,3 C 15,0 C 13,9 C 88 % 1025,5 hPa 0,0 l/m 0 min 0 min 76 W/m 12,9 km/h (3 Bft) 93,48 %
08.09.2020 08:36 14,3 C 15,0 C 13,9 C 88 % 1025,5 hPa 0,0 l/m 0 min 0 min 75 W/m 6,4 km/h (2 Bft) 91,49 %
08.09.2020 08:38 14,3 C 15,0 C 13,9 C 88 % 1025,5 hPa 0,0 l/m 0 min 0 min 75 W/m 0,0 km/h (0 Bft) 93,62 %
08.09.2020 08:40 14,3 C 15,0 C 13,9 C 88 % 1025,5 hPa 0,0 l/m 0 min 0 min 82 W/m 12,9 km/h (3 Bft) 93,62 %
08.09.2020 08:42 14,4 C 15,6 C 14,4 C 88 % 1025,5 hPa 0,0 l/m 0 min 0 min 95 W/m 6,4 km/h (2 Bft) 95,74 %
08.09.2020 08:44 14,4 C 15,6 C 14,4 C 88 % 1025,5 hPa 0,0 l/m 0 min 0 min 105 W/m 6,4 km/h (2 Bft) 95,74 %
08.09.2020 08:46 14,6 C 15,6 C 14,4 C 88 % 1025,5 hPa 0,0 l/m 0 min 0 min 114 W/m 0,0 km/h (0 Bft) 95,65 %
08.09.2020 08:48 14,6 C 15,6 C 14,4 C 88 % 1025,6 hPa 0,0 l/m 0 min 0 min 121 W/m 6,4 km/h (2 Bft) 93,62 %
08.09.2020 08:50 14,7 C 16,1 C 15,0 C 88 % 1025,6 hPa 0,0 l/m 0 min 0 min 120 W/m 12,9 km/h (3 Bft) 97,87 %
08.09.2020 08:52 14,7 C 16,1 C 15,0 C 88 % 1025,6 hPa 0,0 l/m 0 min 0 min 111 W/m 12,9 km/h (3 Bft) 95,74 %
08.09.2020 08:54 14,8 C 15,6 C 15,0 C 88 % 1025,7 hPa 0,0 l/m 0 min 0 min 96 W/m 12,9 km/h (3 Bft) 95,74 %
08.09.2020 08:56 14,9 C 15,6 C 14,4 C 88 % 1025,7 hPa 0,0 l/m 0 min 0 min 87 W/m 9,7 km/h (2 Bft) 97,87 %
08.09.2020 08:58 14,9 C 15,6 C 14,4 C 88 % 1025,7 hPa 0,0 l/m 0 min 0 min 78 W/m 16,1 km/h (3 Bft) 97,83 %
08.09.2020 09:00 15,0 C 15,6 C 14,4 C 88 % 1025,8 hPa 0,0 l/m 0 min 0 min 74 W/m 3,2 km/h (1 Bft) 97,87 %
08.09.2020 09:02 15,1 C 15,6 C 14,4 C 88 % 1025,7 hPa 0,0 l/m 0 min 0 min 72 W/m 16,1 km/h (3 Bft) 97,87 %
08.09.2020 09:04 15,1 C 15,6 C 14,4 C 88 % 1025,7 hPa 0,0 l/m 0 min 0 min 77 W/m 6,4 km/h (2 Bft) 95,74 %
08.09.2020 09:06 15,2 C 15,6 C 14,4 C 88 % 1025,7 hPa 0,0 l/m 0 min 0 min 88 W/m 12,9 km/h (3 Bft) 97,87 %
08.09.2020 09:08 15,3 C 15,6 C 14,4 C 88 % 1025,7 hPa 0,0 l/m 0 min 0 min 99 W/m 16,1 km/h (3 Bft) 97,87 %
08.09.2020 09:10 15,3 C 15,6 C 15,0 C 88 % 1025,7 hPa 0,0 l/m 0 min 0 min 102 W/m 16,1 km/h (3 Bft) 97,83 %
08.09.2020 09:12 15,4 C 16,1 C 15,0 C 88 % 1025,7 hPa 0,0 l/m 0 min 0 min 109 W/m 19,3 km/h (3 Bft) 100,00 %
08.09.2020 09:14 15,4 C 16,1 C 15,0 C 88 % 1025,7 hPa 0,0 l/m 0 min 0 min 113 W/m 16,1 km/h (3 Bft) 100,00 %
08.09.2020 09:16 15,5 C 16,1 C 15,0 C 87 % 1025,7 hPa 0,0 l/m 0 min 0 min 130 W/m 19,3 km/h (3 Bft) 100,00 %
08.09.2020 09:18 15,6 C 16,1 C 15,0 C 87 % 1025,8 hPa 0,0 l/m 0 min 0 min 136 W/m 16,1 km/h (3 Bft) 100,00 %
08.09.2020 09:20 15,6 C 16,1 C 15,0 C 87 % 1025,7 hPa 0,0 l/m 0 min 0 min 135 W/m 16,1 km/h (3 Bft) 100,00 %
08.09.2020 09:22 15,7 C 16,1 C 15,0 C 87 % 1025,7 hPa 0,0 l/m 0 min 0 min 139 W/m 19,3 km/h (3 Bft) 100,00 %
08.09.2020 09:24 15,7 C 16,1 C 15,0 C 87 % 1025,7 hPa 0,0 l/m 0 min 0 min 145 W/m 19,3 km/h (3 Bft) 100,00 %
08.09.2020 09:26 15,8 C 16,7 C 15,6 C 87 % 1025,7 hPa 0,0 l/m 0 min 0 min 152 W/m 22,5 km/h (4 Bft) 100,00 %
08.09.2020 09:28 15,8 C 16,7 C 15,6 C 87 % 1025,7 hPa 0,0 l/m 0 min 0 min 146 W/m 6,4 km/h (2 Bft) 100,00 %
08.09.2020 09:30 15,9 C 16,7 C 15,6 C 87 % 1025,7 hPa 0,0 l/m 0 min 0 min 160 W/m 22,5 km/h (4 Bft) 100,00 %
08.09.2020 09:32 15,9 C 16,7 C 15,6 C 87 % 1025,7 hPa 0,0 l/m 0 min 0 min 163 W/m 9,7 km/h (2 Bft) 100,00 %
08.09.2020 09:34 16,0 C 17,2 C 15,6 C 87 % 1025,7 hPa 0,0 l/m 0 min 0 min 174 W/m 9,7 km/h (2 Bft) 100,00 %
08.09.2020 09:36 16,1 C 17,2 C 16,1 C 87 % 1025,7 hPa 0,0 l/m 0 min 0 min 169 W/m 16,1 km/h (3 Bft) 100,00 %
08.09.2020 09:38 16,1 C 16,7 C 15,6 C 87 % 1025,8 hPa 0,0 l/m 0 min 0 min 157 W/m 22,5 km/h (4 Bft) 100,00 %
08.09.2020 09:40 16,2 C 16,7 C 15,6 C 87 % 1025,7 hPa 0,0 l/m 0 min 0 min 146 W/m 19,3 km/h (3 Bft) 100,00 %
08.09.2020 09:42 16,2 C 17,2 C 15,6 C 87 % 1025,7 hPa 0,0 l/m 0 min 0 min 150 W/m 12,9 km/h (3 Bft) 97,37 %
08.09.2020 09:44 16,3 C 16,7 C 15,6 C 87 % 1025,7 hPa 0,0 l/m 0 min 0 min 164 W/m 19,3 km/h (3 Bft) 100,00 %
08.09.2020 09:46 16,3 C 17,2 C 16,1 C 87 % 1025,8 hPa 0,0 l/m 0 min 0 min 164 W/m 12,9 km/h (3 Bft) 100,00 %
08.09.2020 09:48 16,4 C 16,7 C 16,1 C 87 % 1025,8 hPa 0,0 l/m 0 min 0 min 153 W/m 19,3 km/h (3 Bft) 100,00 %
08.09.2020 09:50 16,4 C 16,7 C 15,6 C 86 % 1025,8 hPa 0,0 l/m 0 min 0 min 142 W/m 29,0 km/h (5 Bft) 97,87 %
08.09.2020 09:52 16,5 C 16,7 C 16,1 C 86 % 1025,8 hPa 0,0 l/m 0 min 0 min 119 W/m 16,1 km/h (3 Bft) 97,87 %
08.09.2020 09:54 16,5 C 17,2 C 16,1 C 86 % 1025,8 hPa 0,0 l/m 0 min 0 min 120 W/m 6,4 km/h (2 Bft) 95,65 %
08.09.2020 09:56 16,6 C 17,2 C 16,1 C 86 % 1025,8 hPa 0,0 l/m 0 min 0 min 130 W/m 12,9 km/h (3 Bft) 97,87 %
08.09.2020 09:58 16,6 C 16,7 C 16,1 C 86 % 1025,8 hPa 0,0 l/m 0 min 0 min 140 W/m 16,1 km/h (3 Bft) 97,87 %
08.09.2020 10:00 16,6 C 16,7 C 16,1 C 86 % 1025,8 hPa 0,0 l/m 0 min 0 min 141 W/m 19,3 km/h (3 Bft) 97,87 %
08.09.2020 10:02 16,7 C 17,2 C 16,1 C 86 % 1025,8 hPa 0,0 l/m 0 min 0 min 141 W/m 16,1 km/h (3 Bft) 97,87 %
08.09.2020 10:04 16,7 C 16,7 C 16,1 C 86 % 1025,8 hPa 0,0 l/m 0 min 0 min 143 W/m 16,1 km/h (3 Bft) 97,83 %
08.09.2020 10:06 16,7 C 17,2 C 16,1 C 86 % 1025,9 hPa 0,0 l/m 0 min 0 min 141 W/m 16,1 km/h (3 Bft) 97,83 %
08.09.2020 10:08 16,8 C 17,2 C 16,1 C 86 % 1025,9 hPa 0,0 l/m 0 min 0 min 143 W/m 9,7 km/h (2 Bft) 96,61 %
08.09.2020 10:10 16,8 C 17,8 C 16,1 C 87 % 1025,9 hPa 0,0 l/m 0 min 0 min 143 W/m 9,7 km/h (2 Bft) 100,00 %
08.09.2020 10:12 16,9 C 17,2 C 16,1 C 87 % 1025,9 hPa 0,0 l/m 0 min 0 min 151 W/m 16,1 km/h (3 Bft) 97,87 %
08.09.2020 10:14 16,9 C 17,2 C 16,1 C 86 % 1025,9 hPa 0,0 l/m 0 min 0 min 154 W/m 12,9 km/h (3 Bft) 95,74 %
08.09.2020 10:16 16,9 C 17,2 C 16,1 C 86 % 1025,9 hPa 0,0 l/m 0 min 0 min 146 W/m 12,9 km/h (3 Bft) 97,87 %
08.09.2020 10:18 16,9 C 17,2 C 16,1 C 86 % 1026,0 hPa 0,0 l/m 0 min 0 min 138 W/m 6,4 km/h (2 Bft) 97,83 %
08.09.2020 10:20 17,0 C 17,2 C 16,1 C 86 % 1026,0 hPa 0,0 l/m 0 min 0 min 135 W/m 12,9 km/h (3 Bft) 97,87 %
08.09.2020 10:22 17,1 C 17,2 C 16,1 C 86 % 1025,9 hPa 0,0 l/m 0 min 0 min 158 W/m 22,5 km/h (4 Bft) 97,87 %
08.09.2020 10:24 17,1 C 17,8 C 16,7 C 86 % 1025,9 hPa 0,0 l/m 0 min 0 min 200 W/m 16,1 km/h (3 Bft) 97,87 %
08.09.2020 10:26 17,1 C 18,3 C 16,7 C 86 % 1026,0 hPa 0,0 l/m 0 min 0 min 211 W/m 12,9 km/h (3 Bft) 97,87 %
08.09.2020 10:28 17,2 C 18,3 C 16,7 C 86 % 1026,0 hPa 0,0 l/m 0 min 0 min 204 W/m 12,9 km/h (3 Bft) 97,87 %
08.09.2020 10:30 17,2 C 18,3 C 16,7 C 86 % 1026,0 hPa 0,0 l/m 0 min 0 min 190 W/m 12,9 km/h (3 Bft) 97,83 %
08.09.2020 10:32 17,2 C 18,3 C 16,7 C 86 % 1026,0 hPa 0,0 l/m 0 min 0 min 175 W/m 12,9 km/h (3 Bft) 97,87 %
08.09.2020 10:34 17,3 C 18,3 C 16,7 C 86 % 1026,0 hPa 0,0 l/m 0 min 0 min 170 W/m 16,1 km/h (3 Bft) 95,74 %
08.09.2020 10:37 17,4 C 17,8 C 16,7 C 85 % 1026,0 hPa 0,0 l/m 0 min 0 min 163 W/m 25,7 km/h (4 Bft) 98,78 %
08.09.2020 10:38 17,4 C 17,8 C 16,7 C 85 % 1026,0 hPa 0,0 l/m 0 min 0 min 184 W/m 12,9 km/h (3 Bft) 100,00 %
08.09.2020 10:40 17,4 C 18,3 C 17,2 C 85 % 1026,0 hPa 0,0 l/m 0 min 0 min 207 W/m 6,4 km/h (2 Bft) 97,87 %
08.09.2020 10:42 17,5 C 18,9 C 17,2 C 86 % 1026,0 hPa 0,0 l/m 0 min 0 min 230 W/m 6,4 km/h (2 Bft) 100,00 %
08.09.2020 10:44 17,6 C 18,9 C 17,2 C 86 % 1026,0 hPa 0,0 l/m 0 min 0 min 239 W/m 12,9 km/h (3 Bft) 95,74 %
08.09.2020 10:46 17,6 C 18,9 C 17,2 C 86 % 1026,0 hPa 0,0 l/m 0 min 0 min 227 W/m 16,1 km/h (3 Bft) 95,74 %
08.09.2020 10:48 17,7 C 18,9 C 17,2 C 86 % 1026,0 hPa 0,0 l/m 0 min 0 min 194 W/m 6,4 km/h (2 Bft) 97,87 %
08.09.2020 10:50 17,8 C 18,9 C 17,2 C 86 % 1026,0 hPa 0,0 l/m 0 min 0 min 165 W/m 9,7 km/h (2 Bft) 95,74 %
08.09.2020 10:52 17,8 C 18,9 C 17,2 C 85 % 1026,0 hPa 0,0 l/m 0 min 0 min 125 W/m 6,4 km/h (2 Bft) 97,87 %
08.09.2020 10:54 17,9 C 18,3 C 17,2 C 85 % 1026,0 hPa 0,0 l/m 0 min 0 min 149 W/m 16,1 km/h (3 Bft) 95,65 %
08.09.2020 10:56 17,9 C 18,3 C 17,2 C 85 % 1026,0 hPa 0,0 l/m 0 min 0 min 156 W/m 9,7 km/h (2 Bft) 97,87 %
08.09.2020 10:58 17,9 C 18,3 C 17,2 C 85 % 1026,0 hPa 0,0 l/m 0 min 0 min 166 W/m 19,3 km/h (3 Bft) 97,87 %
08.09.2020 11:00 18,0 C 18,3 C 17,2 C 85 % 1026,1 hPa 0,0 l/m 0 min 0 min 180 W/m 12,9 km/h (3 Bft) 95,74 %
08.09.2020 11:02 18,1 C 18,9 C 17,2 C 85 % 1026,0 hPa 0,0 l/m 0 min 0 min 196 W/m 6,4 km/h (2 Bft) 95,74 %
08.09.2020 11:04 18,1 C 18,9 C 17,2 C 85 % 1026,0 hPa 0,0 l/m 0 min 0 min 201 W/m 9,7 km/h (2 Bft) 97,87 %
08.09.2020 11:06 18,1 C 18,9 C 17,2 C 85 % 1026,1 hPa 0,0 l/m 0 min 0 min 202 W/m 6,4 km/h (2 Bft) 93,48 %
08.09.2020 11:08 18,2 C 18,9 C 17,2 C 85 % 1026,0 hPa 0,0 l/m 0 min 0 min 227 W/m 16,1 km/h (3 Bft) 97,87 %
08.09.2020 11:10 18,2 C 18,9 C 17,8 C 85 % 1026,0 hPa 0,0 l/m 0 min 0 min 246 W/m 6,4 km/h (2 Bft) 97,87 %
08.09.2020 11:12 18,2 C 18,9 C 17,8 C 85 % 1026,0 hPa 0,0 l/m 0 min 0 min 248 W/m 12,9 km/h (3 Bft) 97,87 %
08.09.2020 11:14 18,3 C 19,4 C 17,8 C 85 % 1026,0 hPa 0,0 l/m 0 min 0 min 240 W/m 12,9 km/h (3 Bft) 95,74 %
08.09.2020 11:16 18,3 C 19,4 C 17,8 C 85 % 1025,9 hPa 0,0 l/m 0 min 0 min 239 W/m 6,4 km/h (2 Bft) 97,83 %
08.09.2020 11:18 18,4 C 20,6 C 18,3 C 85 % 1026,0 hPa 0,0 l/m 0 min 0 min 268 W/m 6,4 km/h (2 Bft) 97,87 %
08.09.2020 11:20 18,5 C 21,1 C 18,3 C 85 % 1026,0 hPa 0,0 l/m 2 min 0 min 385 W/m 6,4 km/h (2 Bft) 95,74 %
08.09.2020 11:22 18,6 C 21,7 C 18,9 C 85 % 1026,0 hPa 0,0 l/m 2 min 0 min 350 W/m 3,2 km/h (1 Bft) 100,00 %
08.09.2020 11:24 18,7 C 21,7 C 18,9 C 85 % 1026,0 hPa 0,0 l/m 2 min 0 min 348 W/m 16,1 km/h (3 Bft) 97,87 %
08.09.2020 11:26 18,7 C 21,1 C 18,9 C 85 % 1026,1 hPa 0,0 l/m 2 min 0 min 317 W/m 16,1 km/h (3 Bft) 93,62 %
08.09.2020 11:28 18,8 C 20,6 C 18,9 C 84 % 1026,1 hPa 0,0 l/m 2 min 0 min 304 W/m 16,1 km/h (3 Bft) 100,00 %
08.09.2020 11:30 18,8 C 20,0 C 18,3 C 83 % 1026,1 hPa 0,0 l/m 0 min 0 min 293 W/m 19,3 km/h (3 Bft) 100,00 %
08.09.2020 11:32 18,9 C 21,1 C 18,9 C 83 % 1026,1 hPa 0,0 l/m 2 min 0 min 328 W/m 6,4 km/h (2 Bft) 97,87 %
08.09.2020 11:34 19,0 C 21,7 C 18,9 C 83 % 1026,1 hPa 0,0 l/m 2 min 0 min 338 W/m 9,7 km/h (2 Bft) 97,87 %
08.09.2020 11:36 19,1 C 20,6 C 18,9 C 83 % 1026,1 hPa 0,0 l/m 0 min 0 min 280 W/m 16,1 km/h (3 Bft) 97,87 %
08.09.2020 11:38 19,1 C 20,6 C 18,9 C 83 % 1026,2 hPa 0,0 l/m 0 min 0 min 249 W/m 9,7 km/h (2 Bft) 100,00 %
08.09.2020 11:40 19,2 C 20,6 C 18,9 C 83 % 1026,2 hPa 0,0 l/m 0 min 0 min 263 W/m 6,4 km/h (2 Bft) 100,00 %
08.09.2020 11:42 19,2 C 20,0 C 18,9 C 82 % 1026,2 hPa 0,0 l/m 0 min 0 min 243 W/m 16,1 km/h (3 Bft) 97,87 %
08.09.2020 11:44 19,2 C 20,0 C 18,9 C 82 % 1026,1 hPa 0,0 l/m 0 min 0 min 237 W/m 6,4 km/h (2 Bft) 100,00 %
08.09.2020 11:46 19,3 C 20,0 C 18,9 C 82 % 1026,2 hPa 0,0 l/m 0 min 0 min 289 W/m 12,9 km/h (3 Bft) 97,87 %
08.09.2020 11:48 19,3 C 20,0 C 18,9 C 82 % 1026,2 hPa 0,0 l/m 0 min 0 min 241 W/m 16,1 km/h (3 Bft) 97,87 %
08.09.2020 11:50 19,3 C 20,0 C 18,9 C 82 % 1026,2 hPa 0,0 l/m 0 min 0 min 222 W/m 9,7 km/h (2 Bft) 95,74 %
08.09.2020 11:52 19,4 C 20,0 C 18,9 C 82 % 1026,2 hPa 0,0 l/m 0 min 0 min 222 W/m 12,9 km/h (3 Bft) 97,83 %
08.09.2020 11:54 19,4 C 20,0 C 18,9 C 82 % 1026,1 hPa 0,0 l/m 0 min 0 min 212 W/m 12,9 km/h (3 Bft) 95,74 %
08.09.2020 11:56 19,4 C 20,0 C 18,9 C 82 % 1026,1 hPa 0,0 l/m 0 min 0 min 195 W/m 9,7 km/h (2 Bft) 95,74 %
08.09.2020 11:58 19,4 C 20,0 C 18,3 C 82 % 1026,2 hPa 0,0 l/m 0 min 0 min 189 W/m 6,4 km/h (2 Bft) 97,87 %
08.09.2020 12:00 19,4 C 20,0 C 18,3 C 81 % 1026,2 hPa 0,0 l/m 0 min 0 min 201 W/m 19,3 km/h (3 Bft) 97,87 %
08.09.2020 12:02 19,4 C 20,0 C 18,3 C 81 % 1026,1 hPa 0,0 l/m 0 min 0 min 214 W/m 16,1 km/h (3 Bft) 97,87 %
08.09.2020 12:04 19,4 C 20,0 C 18,3 C 81 % 1026,1 hPa 0,0 l/m 0 min 0 min 214 W/m 9,7 km/h (2 Bft) 97,83 %
08.09.2020 12:08 19,5 C 20,6 C 18,9 C 82 % 1026,1 hPa 0,0 l/m 0 min 0 min 231 W/m 6,4 km/h (2 Bft) 97,87 %
08.09.2020 12:10 19,6 C 20,6 C 18,9 C 82 % 1026,0 hPa 0,0 l/m 0 min 0 min 218 W/m 6,4 km/h (2 Bft) 97,87 %
08.09.2020 12:12 19,6 C 20,0 C 18,9 C 82 % 1026,1 hPa 0,0 l/m 0 min 0 min 202 W/m 12,9 km/h (3 Bft) 95,74 %
08.09.2020 12:14 19,6 C 20,0 C 18,9 C 81 % 1026,1 hPa 0,0 l/m 0 min 0 min 197 W/m 6,4 km/h (2 Bft) 97,83 %
08.09.2020 12:16 19,6 C 20,0 C 18,9 C 81 % 1026,2 hPa 0,0 l/m 0 min 0 min 195 W/m 6,4 km/h (2 Bft) 97,87 %
08.09.2020 12:18 19,6 C 19,4 C 18,3 C 81 % 1026,2 hPa 0,0 l/m 0 min 0 min 177 W/m 6,4 km/h (2 Bft) 97,87 %
08.09.2020 12:20 19,6 C 19,4 C 18,3 C 81 % 1026,2 hPa 0,0 l/m 0 min 0 min 162 W/m 9,7 km/h (2 Bft) 97,87 %
08.09.2020 12:22 19,6 C 19,4 C 18,3 C 81 % 1026,2 hPa 0,0 l/m 0 min 0 min 158 W/m 6,4 km/h (2 Bft) 97,87 %
08.09.2020 12:24 19,6 C 19,4 C 18,3 C 81 % 1026,2 hPa 0,0 l/m 0 min 0 min 147 W/m 6,4 km/h (2 Bft) 95,74 %
08.09.2020 12:26 19,6 C 19,4 C 18,3 C 81 % 1026,2 hPa 0,0 l/m 0 min 0 min 146 W/m 9,7 km/h (2 Bft) 97,83 %
08.09.2020 12:28 19,6 C 19,4 C 18,3 C 81 % 1026,2 hPa 0,0 l/m 0 min 0 min 140 W/m 12,9 km/h (3 Bft) 95,74 %
08.09.2020 12:30 19,6 C 19,4 C 18,3 C 81 % 1026,3 hPa 0,0 l/m 0 min 0 min 142 W/m 9,7 km/h (2 Bft) 97,87 %
08.09.2020 12:32 19,6 C 19,4 C 18,3 C 82 % 1026,3 hPa 0,0 l/m 0 min 0 min 149 W/m 6,4 km/h (2 Bft) 98,11 %
08.09.2020 12:34 19,6 C 19,4 C 18,3 C 82 % 1026,3 hPa 0,0 l/m 0 min 0 min 153 W/m 25,7 km/h (4 Bft) 97,87 %
08.09.2020 12:36 19,6 C 19,4 C 18,3 C 81 % 1026,3 hPa 0,0 l/m 0 min 0 min 149 W/m 16,1 km/h (3 Bft) 97,87 %
08.09.2020 12:38 19,6 C 19,4 C 18,3 C 81 % 1026,3 hPa 0,0 l/m 0 min 0 min 143 W/m 16,1 km/h (3 Bft) 97,87 %
08.09.2020 12:40 19,6 C 19,4 C 18,3 C 81 % 1026,3 hPa 0,0 l/m 0 min 0 min 140 W/m 12,9 km/h (3 Bft) 97,83 %
08.09.2020 12:42 19,6 C 19,4 C 18,3 C 81 % 1026,3 hPa 0,0 l/m 0 min 0 min 141 W/m 3,2 km/h (1 Bft) 97,87 %
08.09.2020 12:44 19,6 C 19,4 C 18,3 C 81 % 1026,3 hPa 0,0 l/m 0 min 0 min 125 W/m 16,1 km/h (3 Bft) 97,87 %
08.09.2020 12:46 19,6 C 19,4 C 18,3 C 81 % 1026,4 hPa 0,0 l/m 0 min 0 min 123 W/m 19,3 km/h (3 Bft) 93,62 %
08.09.2020 12:48 19,6 C 19,4 C 18,3 C 81 % 1026,3 hPa 0,0 l/m 0 min 0 min 145 W/m 9,7 km/h (2 Bft) 95,74 %
08.09.2020 12:50 19,6 C 19,4 C 18,3 C 81 % 1026,3 hPa 0,0 l/m 0 min 0 min 129 W/m 12,9 km/h (3 Bft) 97,87 %
08.09.2020 12:52 19,6 C 19,4 C 18,3 C 81 % 1026,3 hPa 0,0 l/m 0 min 0 min 134 W/m 16,1 km/h (3 Bft) 97,83 %
08.09.2020 12:54 19,6 C 19,4 C 18,9 C 81 % 1026,3 hPa 0,0 l/m 0 min 0 min 160 W/m 12,9 km/h (3 Bft) 95,74 %
08.09.2020 12:56 19,6 C 19,4 C 18,9 C 81 % 1026,3 hPa 0,0 l/m 0 min 0 min 154 W/m 16,1 km/h (3 Bft) 97,87 %
08.09.2020 12:58 19,6 C 20,0 C 18,9 C 82 % 1026,3 hPa 0,0 l/m 0 min 0 min 141 W/m 6,4 km/h (2 Bft) 97,87 %
08.09.2020 13:00 19,6 C 20,0 C 18,9 C 82 % 1026,3 hPa 0,0 l/m 0 min 0 min 161 W/m 9,7 km/h (2 Bft) 97,87 %
08.09.2020 13:02 19,7 C 20,0 C 18,9 C 82 % 1026,3 hPa 0,0 l/m 0 min 0 min 167 W/m 6,4 km/h (2 Bft) 97,92 %
08.09.2020 13:04 19,7 C 20,0 C 18,9 C 82 % 1026,4 hPa 0,0 l/m 0 min 0 min 145 W/m 6,4 km/h (2 Bft) 97,83 %
08.09.2020 13:06 19,7 C 20,0 C 18,9 C 82 % 1026,3 hPa 0,0 l/m 0 min 0 min 153 W/m 9,7 km/h (2 Bft) 97,87 %
08.09.2020 13:08 19,8 C 20,6 C 18,9 C 82 % 1026,4 hPa 0,0 l/m 0 min 0 min 170 W/m 6,4 km/h (2 Bft) 97,87 %
08.09.2020 13:10 19,8 C 20,6 C 18,9 C 82 % 1026,3 hPa 0,0 l/m 0 min 0 min 175 W/m 12,9 km/h (3 Bft) 97,87 %
08.09.2020 13:12 19,9 C 20,6 C 18,9 C 82 % 1026,3 hPa 0,0 l/m 0 min 0 min 181 W/m 12,9 km/h (3 Bft) 91,49 %
08.09.2020 13:14 19,9 C 20,0 C 18,9 C 82 % 1026,4 hPa 0,0 l/m 0 min 0 min 176 W/m 16,1 km/h (3 Bft) 95,65 %
08.09.2020 13:16 20,0 C 20,0 C 18,9 C 82 % 1026,3 hPa 0,0 l/m 0 min 0 min 137 W/m 6,4 km/h (2 Bft) 93,62 %
08.09.2020 13:18 20,1 C 20,0 C 18,9 C 82 % 1026,3 hPa 0,0 l/m 0 min 0 min 136 W/m 6,4 km/h (2 Bft) 93,62 %
08.09.2020 13:20 20,1 C 20,0 C 18,9 C 82 % 1026,3 hPa 0,0 l/m 0 min 0 min 136 W/m 6,4 km/h (2 Bft) 95,74 %
08.09.2020 13:22 20,1 C 20,0 C 18,9 C 82 % 1026,3 hPa 0,0 l/m 0 min 0 min 131 W/m 12,9 km/h (3 Bft) 95,74 %
08.09.2020 13:24 20,1 C 20,0 C 18,9 C 81 % 1026,3 hPa 0,0 l/m 0 min 0 min 157 W/m 6,4 km/h (2 Bft) 93,62 %
08.09.2020 13:26 20,2 C 20,6 C 18,9 C 82 % 1026,3 hPa 0,0 l/m 0 min 0 min 221 W/m 6,4 km/h (2 Bft) 95,65 %
08.09.2020 13:28 20,2 C 20,6 C 18,9 C 82 % 1026,3 hPa 0,0 l/m 0 min 0 min 224 W/m 6,4 km/h (2 Bft) 93,62 %
08.09.2020 13:30 20,2 C 21,1 C 18,9 C 82 % 1026,3 hPa 0,0 l/m 0 min 0 min 195 W/m 6,4 km/h (2 Bft) 95,74 %
08.09.2020 13:32 20,3 C 20,6 C 19,4 C 82 % 1026,3 hPa 0,0 l/m 0 min 0 min 186 W/m 6,4 km/h (2 Bft) 93,62 %
08.09.2020 13:34 20,3 C 20,6 C 18,9 C 82 % 1026,3 hPa 0,0 l/m 0 min 0 min 188 W/m 6,4 km/h (2 Bft) 93,62 %
08.09.2020 13:36 20,3 C 20,6 C 18,9 C 82 % 1026,3 hPa 0,0 l/m 0 min 0 min 202 W/m 9,7 km/h (2 Bft) 95,74 %
08.09.2020 13:38 20,3 C 20,6 C 19,4 C 81 % 1026,3 hPa 0,0 l/m 0 min 0 min 179 W/m 12,9 km/h (3 Bft) 95,65 %
08.09.2020 13:40 20,4 C 20,6 C 19,4 C 81 % 1026,3 hPa 0,0 l/m 0 min 0 min 167 W/m 12,9 km/h (3 Bft) 97,87 %
08.09.2020 13:42 20,4 C 20,0 C 19,4 C 81 % 1026,3 hPa 0,0 l/m 0 min 0 min 133 W/m 12,9 km/h (3 Bft) 95,74 %
08.09.2020 13:44 20,4 C 20,0 C 18,9 C 81 % 1026,3 hPa 0,0 l/m 0 min 0 min 113 W/m 3,2 km/h (1 Bft) 97,87 %
08.09.2020 13:46 20,4 C 20,0 C 18,9 C 81 % 1026,3 hPa 0,0 l/m 0 min 0 min 132 W/m 9,7 km/h (2 Bft) 97,87 %
08.09.2020 13:48 20,4 C 20,0 C 18,9 C 81 % 1026,3 hPa 0,0 l/m 0 min 0 min 119 W/m 6,4 km/h (2 Bft) 95,65 %
08.09.2020 13:50 20,4 C 20,0 C 18,9 C 81 % 1026,2 hPa 0,0 l/m 0 min 0 min 116 W/m 9,7 km/h (2 Bft) 97,87 %
08.09.2020 13:52 20,4 C 20,0 C 18,9 C 81 % 1026,2 hPa 0,0 l/m 0 min 0 min 116 W/m 6,4 km/h (2 Bft) 100,00 %
08.09.2020 13:54 20,4 C 20,0 C 18,9 C 81 % 1026,2 hPa 0,0 l/m 0 min 0 min 118 W/m 9,7 km/h (2 Bft) 97,87 %
08.09.2020 13:56 20,4 C 20,0 C 18,9 C 81 % 1026,1 hPa 0,0 l/m 0 min 0 min 142 W/m 9,7 km/h (2 Bft) 100,00 %
08.09.2020 13:58 20,4 C 20,0 C 18,9 C 81 % 1026,2 hPa 0,0 l/m 0 min 0 min 149 W/m 6,4 km/h (2 Bft) 98,00 %
08.09.2020 14:00 20,4 C 20,0 C 18,9 C 81 % 1026,2 hPa 0,0 l/m 0 min 0 min 146 W/m 16,1 km/h (3 Bft) 100,00 %
08.09.2020 14:02 20,4 C 20,0 C 18,9 C 81 % 1026,2 hPa 0,0 l/m 0 min 0 min 160 W/m 9,7 km/h (2 Bft) 100,00 %
08.09.2020 14:04 20,4 C 20,6 C 18,9 C 81 % 1026,2 hPa 0,0 l/m 0 min 0 min 201 W/m 9,7 km/h (2 Bft) 100,00 %
08.09.2020 14:06 20,4 C 20,6 C 19,4 C 81 % 1026,2 hPa 0,0 l/m 0 min 0 min 218 W/m 6,4 km/h (2 Bft) 100,00 %
08.09.2020 14:08 20,4 C 20,6 C 19,4 C 81 % 1026,1 hPa 0,0 l/m 0 min 0 min 232 W/m 12,9 km/h (3 Bft) 100,00 %
08.09.2020 14:10 20,4 C 21,1 C 19,4 C 81 % 1026,1 hPa 0,0 l/m 0 min 0 min 231 W/m 12,9 km/h (3 Bft) 100,00 %
08.09.2020 14:12 20,4 C 21,1 C 19,4 C 81 % 1026,1 hPa 0,0 l/m 0 min 0 min 253 W/m 6,4 km/h (2 Bft) 100,00 %
08.09.2020 14:14 20,5 C 21,1 C 20,0 C 81 % 1026,2 hPa 0,0 l/m 0 min 0 min 224 W/m 6,4 km/h (2 Bft) 95,74 %
08.09.2020 14:16 20,6 C 21,7 C 20,0 C 81 % 1026,1 hPa 0,0 l/m 0 min 0 min 215 W/m 6,4 km/h (2 Bft) 100,00 %
08.09.2020 14:18 20,6 C 21,1 C 20,0 C 81 % 1026,2 hPa 0,0 l/m 0 min 0 min 220 W/m 12,9 km/h (3 Bft) 100,00 %
08.09.2020 14:20 20,6 C 21,1 C 20,0 C 80 % 1026,2 hPa 0,0 l/m 0 min 0 min 218 W/m 16,1 km/h (3 Bft) 100,00 %
08.09.2020 14:22 20,6 C 21,1 C 20,0 C 80 % 1026,1 hPa 0,0 l/m 0 min 0 min 230 W/m 12,9 km/h (3 Bft) 100,00 %
08.09.2020 14:25 20,6 C 21,1 C 20,0 C 80 % 1026,1 hPa 0,0 l/m 0 min 0 min 236 W/m 16,1 km/h (3 Bft) 100,00 %
08.09.2020 14:30 20,7 C 20,6 C 19,4 C 79 % 1026,1 hPa 0,0 l/m 0 min 0 min 146 W/m 16,1 km/h (3 Bft) 100,00 %
08.09.2020 14:35 20,6 C 20,0 C 19,4 C 79 % 1026,0 hPa 0,0 l/m 0 min 0 min 114 W/m 19,3 km/h (3 Bft) 100,00 %
08.09.2020 14:40 20,6 C 20,0 C 18,9 C 80 % 1026,0 hPa 0,0 l/m 0 min 0 min 118 W/m 9,7 km/h (2 Bft) 100,00 %
08.09.2020 14:45 20,6 C 20,0 C 18,9 C 81 % 1026,0 hPa 0,0 l/m 0 min 0 min 123 W/m 9,7 km/h (2 Bft) 100,00 %
08.09.2020 14:50 20,6 C 22,2 C 18,9 C 81 % 1025,9 hPa 0,0 l/m 0 min 0 min 201 W/m 12,9 km/h (3 Bft) 100,00 %
08.09.2020 14:55 20,6 C 22,2 C 19,4 C 81 % 1025,9 hPa 0,0 l/m 0 min 0 min 288 W/m 9,7 km/h (2 Bft) 100,00 %
08.09.2020 15:00 20,7 C 20,6 C 19,4 C 79 % 1025,9 hPa 0,0 l/m 0 min 0 min 108 W/m 16,1 km/h (3 Bft) 100,00 %
08.09.2020 15:04 20,7 C 20,0 C 18,9 C 80 % 1026,0 hPa 0,0 l/m 0 min 0 min 103 W/m 12,9 km/h (3 Bft) 100,00 %
08.09.2020 15:06 20,7 C 20,0 C 18,9 C 80 % 1026,0 hPa 0,0 l/m 0 min 0 min 106 W/m 6,4 km/h (2 Bft) 98,04 %
08.09.2020 15:08 20,6 C 20,0 C 18,9 C 80 % 1026,0 hPa 0,0 l/m 0 min 0 min 93 W/m 12,9 km/h (3 Bft) 100,00 %
08.09.2020 15:10 20,6 C 19,4 C 18,9 C 80 % 1026,1 hPa 0,0 l/m 0 min 0 min 78 W/m 9,7 km/h (2 Bft) 100,00 %
08.09.2020 15:12 20,6 C 19,4 C 18,9 C 80 % 1026,1 hPa 0,0 l/m 0 min 0 min 69 W/m 12,9 km/h (3 Bft) 97,87 %
08.09.2020 15:14 20,6 C 19,4 C 18,9 C 81 % 1026,1 hPa 0,0 l/m 0 min 0 min 69 W/m 12,9 km/h (3 Bft) 97,83 %
08.09.2020 15:16 20,5 C 19,4 C 18,9 C 81 % 1026,2 hPa 0,0 l/m 0 min 0 min 75 W/m 6,4 km/h (2 Bft) 100,00 %
08.09.2020 15:18 20,4 C 19,4 C 18,3 C 81 % 1026,2 hPa 0,0 l/m 0 min 0 min 79 W/m 6,4 km/h (2 Bft) 100,00 %
08.09.2020 15:20 20,4 C 19,4 C 18,9 C 81 % 1026,2 hPa 0,0 l/m 0 min 0 min 82 W/m 16,1 km/h (3 Bft) 95,74 %
08.09.2020 15:22 20,3 C 19,4 C 18,3 C 81 % 1026,2 hPa 0,0 l/m 0 min 0 min 85 W/m 6,4 km/h (2 Bft) 95,74 %
08.09.2020 15:24 20,3 C 19,4 C 18,3 C 81 % 1026,3 hPa 0,0 l/m 0 min 0 min 89 W/m 12,9 km/h (3 Bft) 97,87 %
08.09.2020 15:26 20,3 C 18,9 C 18,9 C 81 % 1026,3 hPa 0,0 l/m 0 min 0 min 94 W/m 12,9 km/h (3 Bft) 95,65 %
08.09.2020 15:28 20,2 C 19,4 C 18,3 C 81 % 1026,3 hPa 0,0 l/m 0 min 0 min 108 W/m 12,9 km/h (3 Bft) 97,87 %
08.09.2020 15:30 20,2 C 19,4 C 18,3 C 82 % 1026,2 hPa 0,0 l/m 0 min 0 min 119 W/m 6,4 km/h (2 Bft) 97,87 %
08.09.2020 15:32 20,2 C 20,0 C 18,9 C 82 % 1026,2 hPa 0,0 l/m 0 min 0 min 141 W/m 3,2 km/h (1 Bft) 97,87 %
08.09.2020 15:34 20,2 C 20,0 C 18,9 C 82 % 1026,2 hPa 0,0 l/m 0 min 0 min 174 W/m 6,4 km/h (2 Bft) 95,74 %
08.09.2020 15:36 20,2 C 20,6 C 18,9 C 83 % 1026,3 hPa 0,0 l/m 0 min 0 min 206 W/m 12,9 km/h (3 Bft) 97,87 %
08.09.2020 15:38 20,2 C 20,6 C 18,9 C 83 % 1026,3 hPa 0,0 l/m 0 min 0 min 206 W/m 6,4 km/h (2 Bft) 95,74 %
08.09.2020 15:40 20,2 C 20,6 C 18,9 C 82 % 1026,2 hPa 0,0 l/m 0 min 0 min 186 W/m 9,7 km/h (2 Bft) 91,30 %
08.09.2020 15:42 20,2 C 20,6 C 19,4 C 82 % 1026,2 hPa 0,0 l/m 0 min 0 min 189 W/m 6,4 km/h (2 Bft) 95,74 %
08.09.2020 15:44 20,2 C 20,6 C 19,4 C 82 % 1026,2 hPa 0,0 l/m 0 min 0 min 209 W/m 6,4 km/h (2 Bft) 93,62 %
08.09.2020 15:46 20,2 C 20,6 C 19,4 C 82 % 1026,2 hPa 0,0 l/m 0 min 0 min 209 W/m 12,9 km/h (3 Bft) 95,74 %
08.09.2020 15:48 20,3 C 20,6 C 19,4 C 81 % 1026,2 hPa 0,0 l/m 0 min 0 min 223 W/m 16,1 km/h (3 Bft) 93,62 %
08.09.2020 15:50 20,3 C 21,1 C 19,4 C 82 % 1026,2 hPa 0,0 l/m 0 min 0 min 226 W/m 12,9 km/h (3 Bft) 93,48 %
08.09.2020 15:52 20,3 C 21,1 C 19,4 C 82 % 1026,1 hPa 0,0 l/m 0 min 0 min 217 W/m 9,7 km/h (2 Bft) 91,49 %
08.09.2020 15:54 20,4 C 21,1 C 19,4 C 82 % 1026,1 hPa 0,0 l/m 0 min 0 min 208 W/m 6,4 km/h (2 Bft) 91,49 %
08.09.2020 15:56 20,4 C 21,1 C 19,4 C 82 % 1026,2 hPa 0,0 l/m 0 min 0 min 198 W/m 9,7 km/h (2 Bft) 93,62 %
08.09.2020 15:58 20,4 C 21,1 C 19,4 C 81 % 1026,2 hPa 0,0 l/m 0 min 0 min 221 W/m 6,4 km/h (2 Bft) 91,49 %
08.09.2020 16:00 20,5 C 21,7 C 19,4 C 81 % 1026,2 hPa 0,0 l/m 0 min 0 min 265 W/m 9,7 km/h (2 Bft) 93,62 %
08.09.2020 16:02 20,6 C 21,7 C 19,4 C 81 % 1026,2 hPa 0,0 l/m 2 min 0 min 297 W/m 9,7 km/h (2 Bft) 91,30 %
08.09.2020 16:04 20,6 C 21,7 C 19,4 C 81 % 1026,2 hPa 0,0 l/m 2 min 0 min 278 W/m 19,3 km/h (3 Bft) 93,62 %
08.09.2020 16:06 20,6 C 21,7 C 20,0 C 81 % 1026,1 hPa 0,0 l/m 2 min 0 min 307 W/m 6,4 km/h (2 Bft) 93,62 %
08.09.2020 16:08 20,7 C 21,7 C 20,0 C 81 % 1026,1 hPa 0,0 l/m 2 min 0 min 274 W/m 9,7 km/h (2 Bft) 93,62 %
08.09.2020 16:10 20,7 C 22,2 C 20,0 C 80 % 1026,1 hPa 0,0 l/m 2 min 0 min 311 W/m 6,4 km/h (2 Bft) 91,49 %
08.09.2020 16:12 20,8 C 22,2 C 20,0 C 81 % 1026,1 hPa 0,0 l/m 2 min 0 min 294 W/m 9,7 km/h (2 Bft) 91,49 %
08.09.2020 16:14 20,8 C 22,2 C 20,0 C 81 % 1026,1 hPa 0,0 l/m 0 min 0 min 234 W/m 6,4 km/h (2 Bft) 91,30 %
08.09.2020 16:16 20,9 C 22,2 C 20,0 C 81 % 1026,1 hPa 0,0 l/m 0 min 0 min 220 W/m 6,4 km/h (2 Bft) 95,74 %
08.09.2020 16:18 20,9 C 21,7 C 20,0 C 81 % 1026,1 hPa 0,0 l/m 0 min 0 min 233 W/m 9,7 km/h (2 Bft) 93,62 %
08.09.2020 16:20 20,9 C 21,7 C 20,0 C 81 % 1026,1 hPa 0,0 l/m 0 min 0 min 225 W/m 9,7 km/h (2 Bft) 97,87 %
08.09.2020 16:22 20,9 C 21,7 C 20,0 C 80 % 1026,0 hPa 0,0 l/m 0 min 0 min 235 W/m 16,1 km/h (3 Bft) 95,74 %
08.09.2020 16:24 21,0 C 21,7 C 20,0 C 80 % 1026,0 hPa 0,0 l/m 0 min 0 min 253 W/m 9,7 km/h (2 Bft) 95,65 %
08.09.2020 16:26 21,0 C 21,7 C 20,0 C 80 % 1026,0 hPa 0,0 l/m 2 min 0 min 283 W/m 12,9 km/h (3 Bft) 97,87 %
08.09.2020 16:28 21,0 C 22,2 C 20,0 C 80 % 1026,0 hPa 0,0 l/m 2 min 0 min 293 W/m 12,9 km/h (3 Bft) 97,87 %
08.09.2020 16:30 21,1 C 22,2 C 20,0 C 79 % 1025,9 hPa 0,0 l/m 2 min 0 min 312 W/m 6,4 km/h (2 Bft) 95,74 %
08.09.2020 16:32 21,1 C 23,3 C 20,0 C 80 % 1026,0 hPa 0,0 l/m 2 min 0 min 422 W/m 12,9 km/h (3 Bft) 97,87 %
08.09.2020 16:34 21,1 C 23,3 C 20,6 C 79 % 1026,0 hPa 0,0 l/m 2 min 0 min 487 W/m 12,9 km/h (3 Bft) 97,87 %
08.09.2020 16:36 21,2 C 23,3 C 20,6 C 79 % 1025,9 hPa 0,0 l/m 2 min 0 min 326 W/m 12,9 km/h (3 Bft) 95,65 %
08.09.2020 16:38 21,3 C 23,3 C 20,6 C 80 % 1026,0 hPa 0,0 l/m 2 min 0 min 284 W/m 12,9 km/h (3 Bft) 97,87 %
08.09.2020 16:40 21,3 C 23,3 C 20,6 C 79 % 1026,0 hPa 0,0 l/m 2 min 0 min 353 W/m 9,7 km/h (2 Bft) 100,00 %
08.09.2020 16:42 21,4 C 23,9 C 20,6 C 80 % 1026,0 hPa 0,0 l/m 2 min 0 min 466 W/m 9,7 km/h (2 Bft) 100,00 %
08.09.2020 16:44 21,4 C 23,9 C 20,6 C 79 % 1026,0 hPa 0,0 l/m 2 min 0 min 307 W/m 12,9 km/h (3 Bft) 97,87 %
08.09.2020 16:46 21,5 C 23,9 C 20,6 C 78 % 1026,0 hPa 0,0 l/m 2 min 0 min 348 W/m 12,9 km/h (3 Bft) 100,00 %
08.09.2020 16:48 21,6 C 23,9 C 20,0 C 78 % 1026,0 hPa 0,0 l/m 2 min 0 min 325 W/m 9,7 km/h (2 Bft) 100,00 %
08.09.2020 16:50 21,6 C 22,8 C 20,0 C 78 % 1026,0 hPa 0,0 l/m 2 min 0 min 285 W/m 12,9 km/h (3 Bft) 100,00 %
08.09.2020 16:52 21,6 C 22,8 C 20,0 C 78 % 1026,0 hPa 0,0 l/m 2 min 0 min 258 W/m 9,7 km/h (2 Bft) 100,00 %
08.09.2020 16:54 21,6 C 22,2 C 20,0 C 78 % 1025,9 hPa 0,0 l/m 0 min 0 min 209 W/m 12,9 km/h (3 Bft) 97,87 %
08.09.2020 16:56 21,6 C 22,2 C 20,0 C 78 % 1025,9 hPa 0,0 l/m 2 min 0 min 228 W/m 6,4 km/h (2 Bft) 97,87 %
08.09.2020 16:58 21,6 C 23,9 C 20,6 C 78 % 1025,8 hPa 0,0 l/m 2 min 0 min 364 W/m 9,7 km/h (2 Bft) 100,00 %
08.09.2020 17:00 21,7 C 24,4 C 20,6 C 78 % 1025,8 hPa 0,0 l/m 2 min 0 min 574 W/m 16,1 km/h (3 Bft) 100,00 %
08.09.2020 17:02 21,8 C 25,0 C 20,6 C 79 % 1025,9 hPa 0,0 l/m 2 min 0 min 533 W/m 9,7 km/h (2 Bft) 100,00 %
08.09.2020 17:04 21,8 C 24,4 C 21,1 C 79 % 1025,9 hPa 0,0 l/m 2 min 0 min 398 W/m 6,4 km/h (2 Bft) 100,00 %
08.09.2020 17:06 21,9 C 25,0 C 20,6 C 79 % 1025,8 hPa 0,0 l/m 2 min 0 min 366 W/m 6,4 km/h (2 Bft) 100,00 %
08.09.2020 17:08 22,0 C 25,6 C 20,6 C 79 % 1025,8 hPa 0,0 l/m 2 min 0 min 466 W/m 6,4 km/h (2 Bft) 97,87 %
08.09.2020 17:10 22,1 C 25,6 C 20,6 C 79 % 1025,9 hPa 0,0 l/m 2 min 0 min 468 W/m 12,9 km/h (3 Bft) 100,00 %
08.09.2020 17:12 22,1 C 25,0 C 20,6 C 78 % 1025,8 hPa 0,0 l/m 2 min 0 min 427 W/m 9,7 km/h (2 Bft) 100,00 %
08.09.2020 17:14 22,2 C 25,0 C 20,0 C 78 % 1025,8 hPa 0,0 l/m 2 min 0 min 443 W/m 6,4 km/h (2 Bft) 100,00 %
08.09.2020 17:16 22,2 C 25,0 C 20,0 C 78 % 1025,8 hPa 0,0 l/m 2 min 0 min 410 W/m 6,4 km/h (2 Bft) 100,00 %
08.09.2020 17:18 22,2 C 23,3 C 19,4 C 77 % 1025,9 hPa 0,0 l/m 2 min 0 min 417 W/m 9,7 km/h (2 Bft) 100,00 %
08.09.2020 17:20 22,2 C 23,9 C 19,4 C 77 % 1026,0 hPa 0,0 l/m 2 min 0 min 424 W/m 9,7 km/h (2 Bft) 97,87 %
08.09.2020 17:22 22,2 C 23,9 C 19,4 C 77 % 1025,8 hPa 0,0 l/m 2 min 0 min 403 W/m 6,4 km/h (2 Bft) 97,87 %
08.09.2020 17:24 22,2 C 24,4 C 19,4 C 77 % 1025,9 hPa 0,0 l/m 2 min 0 min 411 W/m 9,7 km/h (2 Bft) 100,00 %
08.09.2020 17:26 22,2 C 24,4 C 19,4 C 77 % 1025,8 hPa 0,0 l/m 2 min 0 min 386 W/m 6,4 km/h (2 Bft) 97,87 %
08.09.2020 17:28 22,3 C 25,0 C 19,4 C 78 % 1025,8 hPa 0,0 l/m 2 min 0 min 370 W/m 12,9 km/h (3 Bft) 100,00 %
08.09.2020 17:30 22,3 C 24,4 C 19,4 C 78 % 1025,8 hPa 0,0 l/m 2 min 0 min 344 W/m 6,4 km/h (2 Bft) 100,00 %
08.09.2020 17:32 22,3 C 24,4 C 19,4 C 78 % 1025,8 hPa 0,0 l/m 2 min 0 min 323 W/m 6,4 km/h (2 Bft) 100,00 %
08.09.2020 17:34 22,3 C 24,4 C 19,4 C 77 % 1025,8 hPa 0,0 l/m 2 min 0 min 365 W/m 6,4 km/h (2 Bft) 100,00 %
08.09.2020 17:36 22,3 C 25,0 C 18,9 C 77 % 1025,7 hPa 0,0 l/m 2 min 0 min 364 W/m 9,7 km/h (2 Bft) 100,00 %
08.09.2020 17:38 22,3 C 25,0 C 18,9 C 78 % 1025,7 hPa 0,0 l/m 2 min 0 min 365 W/m 6,4 km/h (2 Bft) 100,00 %
08.09.2020 17:40 22,3 C 24,4 C 18,9 C 78 % 1025,7 hPa 0,0 l/m 2 min 0 min 358 W/m 9,7 km/h (2 Bft) 100,00 %
08.09.2020 17:42 22,3 C 24,4 C 18,9 C 77 % 1025,7 hPa 0,0 l/m 2 min 0 min 343 W/m 6,4 km/h (2 Bft) 97,87 %
08.09.2020 17:44 22,3 C 24,4 C 18,9 C 77 % 1025,7 hPa 0,0 l/m 2 min 0 min 336 W/m 6,4 km/h (2 Bft) 100,00 %
08.09.2020 17:46 22,3 C 23,9 C 18,9 C 77 % 1025,8 hPa 0,0 l/m 2 min 0 min 330 W/m 9,7 km/h (2 Bft) 100,00 %
08.09.2020 17:48 22,3 C 23,9 C 18,9 C 77 % 1025,7 hPa 0,0 l/m 2 min 0 min 321 W/m 6,4 km/h (2 Bft) 100,00 %
08.09.2020 17:50 22,3 C 23,3 C 18,9 C 77 % 1025,8 hPa 0,0 l/m 2 min 0 min 315 W/m 6,4 km/h (2 Bft) 100,00 %
08.09.2020 17:52 22,3 C 23,3 C 18,9 C 77 % 1025,8 hPa 0,0 l/m 2 min 0 min 301 W/m 9,7 km/h (2 Bft) 100,00 %
08.09.2020 17:54 22,2 C 23,3 C 18,9 C 78 % 1025,8 hPa 0,0 l/m 2 min 0 min 307 W/m 9,7 km/h (2 Bft) 100,00 %
08.09.2020 17:56 22,2 C 23,3 C 18,9 C 78 % 1025,8 hPa 0,0 l/m 2 min 0 min 301 W/m 12,9 km/h (3 Bft) 97,87 %
08.09.2020 17:58 22,2 C 23,3 C 18,9 C 77 % 1025,7 hPa 0,0 l/m 2 min 0 min 306 W/m 9,7 km/h (2 Bft) 100,00 %
08.09.2020 18:00 22,1 C 22,8 C 18,9 C 77 % 1025,7 hPa 0,0 l/m 2 min 0 min 301 W/m 6,4 km/h (2 Bft) 100,00 %
08.09.2020 18:02 22,1 C 21,7 C 18,9 C 78 % 1025,7 hPa 0,0 l/m 2 min 0 min 276 W/m 6,4 km/h (2 Bft) 100,00 %
08.09.2020 18:04 22,0 C 21,1 C 18,9 C 78 % 1025,6 hPa 0,0 l/m 2 min 0 min 253 W/m 9,7 km/h (2 Bft) 100,00 %
08.09.2020 18:08 21,8 C 20,6 C 18,9 C 78 % 1025,7 hPa 0,0 l/m 4 min 0 min 185 W/m 6,4 km/h (2 Bft) 97,87 %
08.09.2020 18:10 21,8 C 20,6 C 18,9 C 78 % 1025,7 hPa 0,0 l/m 0 min 0 min 91 W/m 6,4 km/h (2 Bft) 97,87 %
08.09.2020 18:12 21,7 C 20,0 C 18,3 C 78 % 1025,7 hPa 0,0 l/m 0 min 0 min 69 W/m 9,7 km/h (2 Bft) 97,83 %
08.09.2020 18:14 21,7 C 20,0 C 18,3 C 78 % 1025,7 hPa 0,0 l/m 0 min 0 min 60 W/m 6,4 km/h (2 Bft) 93,62 %
08.09.2020 18:16 21,6 C 20,0 C 18,3 C 79 % 1025,7 hPa 0,0 l/m 0 min 0 min 66 W/m 3,2 km/h (1 Bft) 97,87 %
08.09.2020 18:18 21,5 C 19,4 C 18,3 C 79 % 1025,7 hPa 0,0 l/m 0 min 0 min 70 W/m 12,9 km/h (3 Bft) 100,00 %
08.09.2020 18:20 21,4 C 19,4 C 18,3 C 79 % 1025,7 hPa 0,0 l/m 0 min 0 min 62 W/m 3,2 km/h (1 Bft) 97,87 %
08.09.2020 18:22 21,4 C 19,4 C 18,3 C 79 % 1025,6 hPa 0,0 l/m 0 min 0 min 63 W/m 3,2 km/h (1 Bft) 97,83 %
08.09.2020 18:24 21,3 C 19,4 C 18,3 C 80 % 1025,6 hPa 0,0 l/m 0 min 0 min 98 W/m 6,4 km/h (2 Bft) 97,87 %
08.09.2020 18:26 21,2 C 19,4 C 18,3 C 80 % 1025,6 hPa 0,0 l/m 0 min 0 min 118 W/m 9,7 km/h (2 Bft) 95,74 %
08.09.2020 18:28 21,2 C 20,0 C 18,3 C 80 % 1025,6 hPa 0,0 l/m 0 min 0 min 100 W/m 6,4 km/h (2 Bft) 95,74 %
08.09.2020 18:30 21,1 C 19,4 C 18,3 C 80 % 1025,6 hPa 0,0 l/m 0 min 0 min 70 W/m 19,3 km/h (3 Bft) 95,74 %
08.09.2020 18:32 21,1 C 19,4 C 18,3 C 80 % 1025,6 hPa 0,0 l/m 0 min 0 min 65 W/m 6,4 km/h (2 Bft) 97,83 %
08.09.2020 18:34 21,0 C 19,4 C 18,3 C 80 % 1025,6 hPa 0,0 l/m 0 min 0 min 53 W/m 6,4 km/h (2 Bft) 97,87 %
08.09.2020 18:36 20,9 C 19,4 C 18,3 C 80 % 1025,6 hPa 0,0 l/m 0 min 0 min 49 W/m 6,4 km/h (2 Bft) 97,87 %
08.09.2020 18:38 20,8 C 18,9 C 17,8 C 80 % 1025,6 hPa 0,0 l/m 0 min 0 min 48 W/m 6,4 km/h (2 Bft) 95,74 %
08.09.2020 18:40 20,8 C 18,9 C 17,8 C 80 % 1025,6 hPa 0,0 l/m 0 min 0 min 49 W/m 3,2 km/h (1 Bft) 97,87 %
08.09.2020 18:42 20,7 C 18,9 C 17,8 C 81 % 1025,6 hPa 0,0 l/m 0 min 0 min 48 W/m 0,0 km/h (0 Bft) 97,87 %
08.09.2020 18:44 20,6 C 18,9 C 17,8 C 81 % 1025,6 hPa 0,0 l/m 0 min 0 min 49 W/m 0,0 km/h (0 Bft) 95,65 %
08.09.2020 18:46 20,6 C 18,9 C 17,8 C 81 % 1025,6 hPa 0,0 l/m 0 min 0 min 49 W/m 0,0 km/h (0 Bft) 97,87 %
08.09.2020 18:48 20,5 C 18,9 C 17,8 C 82 % 1025,6 hPa 0,0 l/m 0 min 0 min 52 W/m 0,0 km/h (0 Bft) 95,65 %
08.09.2020 18:50 20,4 C 18,9 C 17,8 C 82 % 1025,6 hPa 0,0 l/m 0 min 0 min 56 W/m 0,0 km/h (0 Bft) 95,74 %
08.09.2020 18:52 20,3 C 18,9 C 17,8 C 82 % 1025,7 hPa 0,0 l/m 0 min 0 min 59 W/m 0,0 km/h (0 Bft) 93,62 %
08.09.2020 18:54 20,3 C 18,9 C 17,8 C 82 % 1025,6 hPa 0,0 l/m 0 min 0 min 59 W/m 0,0 km/h (0 Bft) 91,49 %
08.09.2020 18:56 20,2 C 18,9 C 17,8 C 82 % 1025,6 hPa 0,0 l/m 0 min 0 min 61 W/m 6,4 km/h (2 Bft) 93,48 %
08.09.2020 18:58 20,2 C 18,9 C 17,8 C 83 % 1025,6 hPa 0,0 l/m 0 min 0 min 59 W/m 6,4 km/h (2 Bft) 93,62 %
08.09.2020 19:00 20,1 C 18,9 C 17,8 C 83 % 1025,6 hPa 0,0 l/m 0 min 0 min 55 W/m 6,4 km/h (2 Bft) 95,74 %
08.09.2020 19:02 20,1 C 18,9 C 17,8 C 83 % 1025,6 hPa 0,0 l/m 0 min 0 min 52 W/m 0,0 km/h (0 Bft) 97,87 %
08.09.2020 19:04 20,1 C 18,9 C 17,8 C 83 % 1025,6 hPa 0,0 l/m 0 min 0 min 45 W/m 0,0 km/h (0 Bft) 93,62 %
08.09.2020 19:06 20,0 C 18,9 C 17,8 C 83 % 1025,6 hPa 0,0 l/m 0 min 0 min 35 W/m 0,0 km/h (0 Bft) 95,74 %
08.09.2020 19:08 20,0 C 18,3 C 17,2 C 83 % 1025,6 hPa 0,0 l/m 0 min 0 min 30 W/m 0,0 km/h (0 Bft) 95,65 %
08.09.2020 19:10 19,9 C 18,3 C 17,2 C 83 % 1025,6 hPa 0,0 l/m 0 min 0 min 32 W/m 3,2 km/h (1 Bft) 95,74 %
08.09.2020 19:12 19,9 C 18,3 C 17,2 C 83 % 1025,6 hPa 0,0 l/m 0 min 0 min 28 W/m 0,0 km/h (0 Bft) 95,74 %
08.09.2020 19:14 19,9 C 18,3 C 17,2 C 84 % 1025,6 hPa 0,0 l/m 0 min 0 min 26 W/m 0,0 km/h (0 Bft) 95,74 %
08.09.2020 19:16 19,8 C 18,3 C 17,2 C 84 % 1025,6 hPa 0,0 l/m 0 min 0 min 26 W/m 0,0 km/h (0 Bft) 95,74 %
08.09.2020 19:18 19,8 C 18,3 C 17,2 C 84 % 1025,6 hPa 0,0 l/m 0 min 0 min 27 W/m 0,0 km/h (0 Bft) 95,74 %
08.09.2020 19:20 19,8 C 18,3 C 17,2 C 84 % 1025,7 hPa 0,0 l/m 0 min 0 min 31 W/m 0,0 km/h (0 Bft) 93,48 %
08.09.2020 19:22 19,7 C 18,3 C 17,2 C 84 % 1025,6 hPa 0,0 l/m 0 min 0 min 33 W/m 0,0 km/h (0 Bft) 93,62 %
08.09.2020 19:24 19,7 C 18,3 C 17,2 C 84 % 1025,6 hPa 0,0 l/m 0 min 0 min 33 W/m 0,0 km/h (0 Bft) 95,74 %
08.09.2020 19:26 19,7 C 18,3 C 17,2 C 84 % 1025,6 hPa 0,0 l/m 0 min 0 min 32 W/m 3,2 km/h (1 Bft) 95,74 %
08.09.2020 19:28 19,6 C 18,3 C 17,2 C 84 % 1025,6 hPa 0,0 l/m 0 min 0 min 35 W/m 0,0 km/h (0 Bft) 93,62 %
08.09.2020 19:30 19,6 C 18,3 C 17,2 C 84 % 1025,6 hPa 0,0 l/m 0 min 0 min 30 W/m 0,0 km/h (0 Bft) 95,74 %
08.09.2020 19:32 19,6 C 18,3 C 17,2 C 84 % 1025,6 hPa 0,0 l/m 0 min 0 min 26 W/m 0,0 km/h (0 Bft) 95,65 %
08.09.2020 19:34 19,6 C 18,3 C 17,2 C 84 % 1025,6 hPa 0,0 l/m 0 min 0 min 21 W/m 0,0 km/h (0 Bft) 95,74 %
08.09.2020 19:36 19,5 C 17,8 C 17,2 C 84 % 1025,6 hPa 0,0 l/m 0 min 0 min 19 W/m 0,0 km/h (0 Bft) 97,87 %
08.09.2020 19:38 19,5 C 17,8 C 17,2 C 85 % 1025,6 hPa 0,0 l/m 0 min 0 min 17 W/m 0,0 km/h (0 Bft) 97,87 %
08.09.2020 19:40 19,4 C 17,8 C 17,2 C 85 % 1025,6 hPa 0,0 l/m 0 min 0 min 14 W/m 0,0 km/h (0 Bft) 97,87 %
08.09.2020 19:42 19,4 C 17,8 C 16,7 C 85 % 1025,5 hPa 0,0 l/m 0 min 0 min 12 W/m 0,0 km/h (0 Bft) 100,00 %
08.09.2020 19:44 19,4 C 17,2 C 16,7 C 85 % 1025,6 hPa 0,0 l/m 0 min 0 min 11 W/m 0,0 km/h (0 Bft) 100,00 %
08.09.2020 19:46 19,4 C 17,2 C 16,7 C 85 % 1025,6 hPa 0,0 l/m 0 min 0 min 11 W/m 0,0 km/h (0 Bft) 100,00 %
08.09.2020 19:48 19,3 C 17,2 C 16,7 C 85 % 1025,7 hPa 0,0 l/m 0 min 0 min 11 W/m 0,0 km/h (0 Bft) 97,87 %
08.09.2020 19:50 19,3 C 17,2 C 16,7 C 85 % 1025,7 hPa 0,0 l/m 0 min 0 min 11 W/m 0,0 km/h (0 Bft) 100,00 %
08.09.2020 19:52 19,3 C 17,2 C 16,1 C 85 % 1025,7 hPa 0,0 l/m 0 min 0 min 9 W/m 0,0 km/h (0 Bft) 100,00 %
08.09.2020 19:54 19,2 C 17,2 C 16,1 C 85 % 1025,6 hPa 0,0 l/m 0 min 0 min 8 W/m 0,0 km/h (0 Bft) 100,00 %
08.09.2020 19:56 19,2 C 16,7 C 16,1 C 85 % 1025,6 hPa 0,0 l/m 0 min 0 min 7 W/m 0,0 km/h (0 Bft) 100,00 %
08.09.2020 19:58 19,2 C 16,7 C 16,1 C 85 % 1025,6 hPa 0,0 l/m 0 min 0 min 6 W/m 0,0 km/h (0 Bft) 97,87 %
08.09.2020 20:00 19,1 C 16,7 C 16,1 C 85 % 1025,6 hPa 0,0 l/m 0 min 0 min 5 W/m 0,0 km/h (0 Bft) 100,00 %
08.09.2020 20:02 19,1 C 16,7 C 16,1 C 85 % 1025,6 hPa 0,0 l/m 0 min 0 min 4 W/m 0,0 km/h (0 Bft) 100,00 %
08.09.2020 20:04 19,1 C 16,7 C 15,6 C 85 % 1025,6 hPa 0,0 l/m 0 min 0 min 0 W/m 0,0 km/h (0 Bft) 100,00 %
08.09.2020 20:06 19,0 C 16,1 C 15,6 C 85 % 1025,6 hPa 0,0 l/m 0 min 0 min 0 W/m 0,0 km/h (0 Bft) 100,00 %
08.09.2020 20:08 18,9 C 16,1 C 15,6 C 85 % 1025,6 hPa 0,0 l/m 0 min 0 min 0 W/m 0,0 km/h (0 Bft) 100,00 %
08.09.2020 20:10 18,9 C 16,1 C 15,6 C 85 % 1025,6 hPa 0,0 l/m 0 min 0 min 0 W/m 0,0 km/h (0 Bft) 100,00 %
08.09.2020 20:12 18,8 C 16,1 C 15,6 C 85 % 1025,6 hPa 0,0 l/m 0 min 0 min 0 W/m 0,0 km/h (0 Bft) 100,00 %
08.09.2020 20:14 18,7 C 16,1 C 15,0 C 85 % 1025,6 hPa 0,0 l/m 0 min 0 min 0 W/m 0,0 km/h (0 Bft) 100,00 %
08.09.2020 20:16 18,7 C 16,1 C 15,0 C 85 % 1025,6 hPa 0,0 l/m 0 min 0 min 0 W/m 0,0 km/h (0 Bft) 100,00 %
08.09.2020 20:18 18,7 C 15,6 C 15,0 C 85 % 1025,5 hPa 0,0 l/m 0 min 0 min 0 W/m 0,0 km/h (0 Bft) 100,00 %
08.09.2020 20:20 18,6 C 15,6 C 15,0 C 86 % 1025,6 hPa 0,0 l/m 0 min 0 min 0 W/m 0,0 km/h (0 Bft) 97,87 %
08.09.2020 20:22 18,6 C 15,6 C 15,0 C 86 % 1025,6 hPa 0,0 l/m 0 min 0 min 0 W/m 0,0 km/h (0 Bft) 97,87 %
08.09.2020 20:24 18,4 C 15,6 C 15,0 C 86 % 1025,5 hPa 0,0 l/m 0 min 0 min 0 W/m 0,0 km/h (0 Bft) 100,00 %
08.09.2020 20:26 18,4 C 15,6 C 15,0 C 86 % 1025,6 hPa 0,0 l/m 0 min 0 min 0 W/m 0,0 km/h (0 Bft) 100,00 %
08.09.2020 20:28 18,3 C 15,6 C 15,0 C 86 % 1025,6 hPa 0,0 l/m 0 min 0 min 0 W/m 0,0 km/h (0 Bft) 97,87 %
08.09.2020 20:30 18,3 C 15,6 C 15,0 C 86 % 1025,6 hPa 0,0 l/m 0 min 0 min 0 W/m 0,0 km/h (0 Bft) 100,00 %
08.09.2020 20:32 18,2 C 15,6 C 14,4 C 86 % 1025,6 hPa 0,0 l/m 0 min 0 min 0 W/m 0,0 km/h (0 Bft) 100,00 %
08.09.2020 20:34 18,2 C 15,6 C 14,4 C 87 % 1025,6 hPa 0,0 l/m 0 min 0 min 0 W/m 0,0 km/h (0 Bft) 100,00 %
08.09.2020 20:36 18,1 C 15,6 C 14,4 C 87 % 1025,7 hPa 0,0 l/m 0 min 0 min 0 W/m 0,0 km/h (0 Bft) 100,00 %
08.09.2020 20:38 18,1 C 15,0 C 14,4 C 87 % 1025,6 hPa 0,0 l/m 0 min 0 min 0 W/m 0,0 km/h (0 Bft) 100,00 %
08.09.2020 20:40 18,0 C 15,6 C 14,4 C 87 % 1025,7 hPa 0,0 l/m 0 min 0 min 0 W/m 0,0 km/h (0 Bft) 100,00 %
08.09.2020 20:42 17,9 C 15,0 C 14,4 C 87 % 1025,7 hPa 0,0 l/m 0 min 0 min 0 W/m 0,0 km/h (0 Bft) 100,00 %
08.09.2020 20:44 17,8 C 15,0 C 14,4 C 87 % 1025,7 hPa 0,0 l/m 0 min 0 min 0 W/m 0,0 km/h (0 Bft) 100,00 %
08.09.2020 20:46 17,8 C 15,0 C 14,4 C 88 % 1025,7 hPa 0,0 l/m 0 min 0 min 0 W/m 0,0 km/h (0 Bft) 100,00 %
08.09.2020 20:48 17,7 C 15,0 C 14,4 C 88 % 1025,7 hPa 0,0 l/m 0 min 0 min 0 W/m 0,0 km/h (0 Bft) 100,00 %
08.09.2020 20:50 17,7 C 15,0 C 14,4 C 88 % 1025,7 hPa 0,0 l/m 0 min 0 min 0 W/m 0,0 km/h (0 Bft) 100,00 %
08.09.2020 20:52 17,6 C 15,0 C 14,4 C 88 % 1025,7 hPa 0,0 l/m 0 min 0 min 0 W/m 0,0 km/h (0 Bft) 100,00 %
08.09.2020 20:54 17,6 C 15,0 C 14,4 C 88 % 1025,7 hPa 0,0 l/m 0 min 0 min 0 W/m 0,0 km/h (0 Bft) 97,87 %
08.09.2020 20:56 17,5 C 14,4 C 14,4 C 88 % 1025,7 hPa 0,0 l/m 0 min 0 min 0 W/m 0,0 km/h (0 Bft) 97,87 %
08.09.2020 20:58 17,4 C 14,4 C 13,9 C 88 % 1025,7 hPa 0,0 l/m 0 min 0 min 0 W/m 0,0 km/h (0 Bft) 97,87 %
08.09.2020 21:00 17,4 C 14,4 C 13,9 C 89 % 1025,7 hPa 0,0 l/m 0 min 0 min 0 W/m 0,0 km/h (0 Bft) 97,87 %
08.09.2020 21:02 17,3 C 14,4 C 13,9 C 89 % 1025,7 hPa 0,0 l/m 0 min 0 min 0 W/m 0,0 km/h (0 Bft) 97,87 %
08.09.2020 21:04 17,3 C 14,4 C 13,9 C 89 % 1025,6 hPa 0,0 l/m 0 min 0 min 0 W/m 0,0 km/h (0 Bft) 95,65 %
08.09.2020 21:06 17,2 C 14,4 C 13,9 C 89 % 1025,7 hPa 0,0 l/m 0 min 0 min 0 W/m 0,0 km/h (0 Bft) 95,74 %
08.09.2020 21:08 17,2 C 14,4 C 13,9 C 89 % 1025,6 hPa 0,0 l/m 0 min 0 min 0 W/m 0,0 km/h (0 Bft) 93,62 %
08.09.2020 21:10 17,1 C 14,4 C 13,9 C 89 % 1025,7 hPa 0,0 l/m 0 min 0 min 0 W/m 0,0 km/h (0 Bft) 97,87 %
08.09.2020 21:12 17,1 C 14,4 C 13,9 C 89 % 1025,7 hPa 0,0 l/m 0 min 0 min 0 W/m 0,0 km/h (0 Bft) 95,74 %
08.09.2020 21:14 17,0 C 14,4 C 13,9 C 89 % 1025,7 hPa 0,0 l/m 0 min 0 min 0 W/m 0,0 km/h (0 Bft) 93,62 %
08.09.2020 21:16 17,0 C 14,4 C 13,9 C 89 % 1025,7 hPa 0,0 l/m 0 min 0 min 0 W/m 0,0 km/h (0 Bft) 95,65 %
08.09.2020 21:18 16,9 C 14,4 C 13,9 C 90 % 1025,7 hPa 0,0 l/m 0 min 0 min 0 W/m 0,0 km/h (0 Bft) 97,87 %
08.09.2020 21:20 16,9 C 14,4 C 13,9 C 90 % 1025,8 hPa 0,0 l/m 0 min 0 min 0 W/m 0,0 km/h (0 Bft) 97,87 %
08.09.2020 21:22 16,8 C 14,4 C 13,9 C 90 % 1025,8 hPa 0,0 l/m 0 min 0 min 0 W/m 0,0 km/h (0 Bft) 95,74 %
08.09.2020 21:24 16,8 C 14,4 C 13,9 C 90 % 1025,8 hPa 0,0 l/m 0 min 0 min 0 W/m 0,0 km/h (0 Bft) 93,62 %
08.09.2020 21:26 16,7 C 13,9 C 13,9 C 90 % 1025,8 hPa 0,0 l/m 0 min 0 min 0 W/m 0,0 km/h (0 Bft) 95,74 %
08.09.2020 21:28 16,7 C 13,9 C 13,9 C 90 % 1025,8 hPa 0,0 l/m 0 min 0 min 0 W/m 0,0 km/h (0 Bft) 95,65 %
08.09.2020 21:30 16,6 C 13,9 C 13,9 C 90 % 1025,8 hPa 0,0 l/m 0 min 0 min 0 W/m 0,0 km/h (0 Bft) 95,74 %
08.09.2020 21:32 16,6 C 13,9 C 13,9 C 90 % 1025,8 hPa 0,0 l/m 0 min 0 min 0 W/m 0,0 km/h (0 Bft) 93,62 %
08.09.2020 21:34 16,6 C 13,9 C 13,9 C 90 % 1025,8 hPa 0,0 l/m 0 min 0 min 0 W/m 0,0 km/h (0 Bft) 93,62 %
08.09.2020 21:36 16,5 C 13,9 C 13,9 C 90 % 1025,8 hPa 0,0 l/m 0 min 0 min 0 W/m 0,0 km/h (0 Bft) 95,74 %
08.09.2020 21:38 16,4 C 13,9 C 13,9 C 91 % 1025,7 hPa 0,0 l/m 0 min 0 min 0 W/m 0,0 km/h (0 Bft) 95,74 %
08.09.2020 21:40 16,4 C 14,4 C 13,9 C 91 % 1025,7 hPa 0,0 l/m 0 min 0 min 0 W/m 0,0 km/h (0 Bft) 95,65 %
08.09.2020 21:42 16,4 C 14,4 C 13,9 C 91 % 1025,7 hPa 0,0 l/m 0 min 0 min 0 W/m 0,0 km/h (0 Bft) 93,62 %
08.09.2020 21:44 16,3 C 13,9 C 13,9 C 91 % 1025,7 hPa 0,0 l/m 0 min 0 min 0 W/m 0,0 km/h (0 Bft) 93,62 %
08.09.2020 21:46 16,3 C 13,9 C 13,9 C 91 % 1025,7 hPa 0,0 l/m 0 min 0 min 0 W/m 0,0 km/h (0 Bft) 91,49 %
08.09.2020 21:48 16,3 C 13,9 C 13,9 C 91 % 1025,8 hPa 0,0 l/m 0 min 0 min 0 W/m 0,0 km/h (0 Bft) 93,62 %
08.09.2020 21:50 16,3 C 13,9 C 13,9 C 91 % 1025,7 hPa 0,0 l/m 0 min 0 min 0 W/m 0,0 km/h (0 Bft) 97,83 %
08.09.2020 21:52 16,2 C 13,9 C 13,3 C 91 % 1025,8 hPa 0,0 l/m 0 min 0 min 0 W/m 0,0 km/h (0 Bft) 97,87 %
08.09.2020 21:54 16,2 C 13,9 C 13,3 C 91 % 1025,7 hPa 0,0 l/m 0 min 0 min 0 W/m 0,0 km/h (0 Bft) 93,62 %
08.09.2020 21:56 16,2 C 13,9 C 13,3 C 91 % 1025,8 hPa 0,0 l/m 0 min 0 min 0 W/m 0,0 km/h (0 Bft) 95,74 %
08.09.2020 21:58 16,1 C 13,9 C 13,3 C 91 % 1025,8 hPa 0,0 l/m 0 min 0 min 0 W/m 0,0 km/h (0 Bft) 95,74 %
08.09.2020 22:00 16,1 C 13,9 C 13,3 C 91 % 1025,8 hPa 0,0 l/m 0 min 0 min 0 W/m 0,0 km/h (0 Bft) 97,87 %
08.09.2020 22:02 16,1 C 13,9 C 13,3 C 92 % 1025,8 hPa 0,0 l/m 0 min 0 min 0 W/m 0,0 km/h (0 Bft) 97,83 %
08.09.2020 22:04 16,0 C 13,9 C 13,3 C 92 % 1025,8 hPa 0,0 l/m 0 min 0 min 0 W/m 0,0 km/h (0 Bft) 100,00 %
08.09.2020 22:06 16,0 C 13,9 C 13,3 C 92 % 1025,8 hPa 0,0 l/m 0 min 0 min 0 W/m 0,0 km/h (0 Bft) 100,00 %
08.09.2020 22:08 15,9 C 13,9 C 13,3 C 92 % 1025,8 hPa 0,0 l/m 0 min 0 min 0 W/m 0,0 km/h (0 Bft) 100,00 %
08.09.2020 22:10 15,9 C 13,9 C 13,3 C 92 % 1025,8 hPa 0,0 l/m 0 min 0 min 0 W/m 0,0 km/h (0 Bft) 100,00 %
08.09.2020 22:12 15,9 C 13,3 C 13,3 C 92 % 1025,8 hPa 0,0 l/m 0 min 0 min 0 W/m 0,0 km/h (0 Bft) 100,00 %
08.09.2020 22:14 15,8 C 13,3 C 13,3 C 92 % 1025,8 hPa 0,0 l/m 0 min 0 min 0 W/m 0,0 km/h (0 Bft) 100,00 %
08.09.2020 22:16 15,8 C 13,3 C 13,3 C 92 % 1025,8 hPa 0,0 l/m 0 min 0 min 0 W/m 0,0 km/h (0 Bft) 97,87 %
08.09.2020 22:18 15,8 C 13,3 C 13,3 C 92 % 1025,7 hPa 0,0 l/m 0 min 0 min 0 W/m 0,0 km/h (0 Bft) 97,83 %
08.09.2020 22:20 15,8 C 13,3 C 13,3 C 92 % 1025,8 hPa 0,0 l/m 0 min 0 min 0 W/m 0,0 km/h (0 Bft) 100,00 %
08.09.2020 22:22 15,7 C 13,3 C 13,3 C 92 % 1025,8 hPa 0,0 l/m 0 min 0 min 0 W/m 0,0 km/h (0 Bft) 100,00 %
08.09.2020 22:24 15,7 C 13,3 C 13,3 C 92 % 1025,7 hPa 0,0 l/m 0 min 0 min 0 W/m 0,0 km/h (0 Bft) 100,00 %
08.09.2020 22:26 15,7 C 13,3 C 13,3 C 92 % 1025,7 hPa 0,0 l/m 0 min 0 min 0 W/m 0,0 km/h (0 Bft) 100,00 %
08.09.2020 22:28 15,6 C 13,3 C 12,8 C 92 % 1025,7 hPa 0,0 l/m 0 min 0 min 0 W/m 0,0 km/h (0 Bft) 100,00 %
08.09.2020 22:30 15,6 C 13,3 C 12,8 C 92 % 1025,8 hPa 0,0 l/m 0 min 0 min 0 W/m 0,0 km/h (0 Bft) 100,00 %
08.09.2020 22:32 15,6 C 13,3 C 12,8 C 92 % 1025,7 hPa 0,0 l/m 0 min 0 min 0 W/m 0,0 km/h (0 Bft) 100,00 %
08.09.2020 22:34 15,6 C 13,3 C 12,8 C 92 % 1025,7 hPa 0,0 l/m 0 min 0 min 0 W/m 0,0 km/h (0 Bft) 95,74 %
08.09.2020 22:36 15,5 C 13,3 C 12,8 C 92 % 1025,8 hPa 0,0 l/m 0 min 0 min 0 W/m 0,0 km/h (0 Bft) 100,00 %
08.09.2020 22:38 15,4 C 13,3 C 12,8 C 93 % 1025,7 hPa 0,0 l/m 0 min 0 min 0 W/m 0,0 km/h (0 Bft) 97,87 %
08.09.2020 22:40 15,4 C 13,3 C 12,8 C 93 % 1025,8 hPa 0,0 l/m 0 min 0 min 0 W/m 0,0 km/h (0 Bft) 97,87 %
08.09.2020 22:42 15,4 C 13,3 C 12,8 C 93 % 1025,7 hPa 0,0 l/m 0 min 0 min 0 W/m 0,0 km/h (0 Bft) 97,83 %
08.09.2020 22:44 15,4 C 13,3 C 12,8 C 93 % 1025,7 hPa 0,0 l/m 0 min 0 min 0 W/m 0,0 km/h (0 Bft) 97,87 %
08.09.2020 22:46 15,3 C 13,3 C 12,8 C 93 % 1025,7 hPa 0,0 l/m 0 min 0 min 0 W/m 0,0 km/h (0 Bft) 97,87 %
08.09.2020 22:48 15,3 C 13,3 C 12,8 C 93 % 1025,7 hPa 0,0 l/m 0 min 0 min 0 W/m 0,0 km/h (0 Bft) 97,87 %
08.09.2020 22:50 15,3 C 13,3 C 12,8 C 93 % 1025,7 hPa 0,0 l/m 0 min 0 min 0 W/m 0,0 km/h (0 Bft) 97,87 %
08.09.2020 22:52 15,3 C 13,3 C 12,8 C 93 % 1025,7 hPa 0,0 l/m 0 min 0 min 0 W/m 0,0 km/h (0 Bft) 95,65 %
08.09.2020 22:54 15,2 C 13,3 C 12,8 C 93 % 1025,7 hPa 0,0 l/m 0 min 0 min 0 W/m 0,0 km/h (0 Bft) 95,74 %
08.09.2020 22:56 15,2 C 13,3 C 12,8 C 93 % 1025,7 hPa 0,0 l/m 0 min 0 min 0 W/m 0,0 km/h (0 Bft) 100,00 %
08.09.2020 22:58 15,2 C 13,3 C 12,8 C 93 % 1025,7 hPa 0,0 l/m 0 min 0 min 0 W/m 0,0 km/h (0 Bft) 97,87 %
08.09.2020 23:00 15,1 C 13,3 C 12,8 C 93 % 1025,7 hPa 0,0 l/m 0 min 0 min 0 W/m 0,0 km/h (0 Bft) 97,87 %
08.09.2020 23:02 15,1 C 13,3 C 12,8 C 93 % 1025,6 hPa 0,0 l/m 0 min 0 min 0 W/m 0,0 km/h (0 Bft) 97,87 %
08.09.2020 23:04 15,1 C 13,3 C 12,8 C 93 % 1025,6 hPa 0,0 l/m 0 min 0 min 0 W/m 0,0 km/h (0 Bft) 97,83 %
08.09.2020 23:06 15,1 C 13,3 C 12,8 C 93 % 1025,6 hPa 0,0 l/m 0 min 0 min 0 W/m 0,0 km/h (0 Bft) 97,87 %
08.09.2020 23:08 15,1 C 13,3 C 12,8 C 93 % 1025,6 hPa 0,0 l/m 0 min 0 min 0 W/m 0,0 km/h (0 Bft) 95,74 %
08.09.2020 23:10 15,0 C 13,3 C 12,8 C 93 % 1025,6 hPa 0,0 l/m 0 min 0 min 0 W/m 0,0 km/h (0 Bft) 97,96 %
08.09.2020 23:12 14,9 C 13,3 C 12,8 C 93 % 1025,6 hPa 0,0 l/m 0 min 0 min 0 W/m 0,0 km/h (0 Bft) 97,87 %
08.09.2020 23:14 14,9 C 13,3 C 12,8 C 93 % 1025,6 hPa 0,0 l/m 0 min 0 min 0 W/m 0,0 km/h (0 Bft) 97,87 %
08.09.2020 23:16 14,9 C 12,8 C 12,8 C 93 % 1025,6 hPa 0,0 l/m 0 min 0 min 0 W/m 0,0 km/h (0 Bft) 97,83 %
08.09.2020 23:18 14,9 C 12,8 C 12,8 C 93 % 1025,6 hPa 0,0 l/m 0 min 0 min 0 W/m 0,0 km/h (0 Bft) 95,74 %
08.09.2020 23:20 14,8 C 12,8 C 12,8 C 93 % 1025,6 hPa 0,0 l/m 0 min 0 min 0 W/m 0,0 km/h (0 Bft) 97,87 %
08.09.2020 23:22 14,8 C 12,8 C 12,8 C 93 % 1025,6 hPa 0,0 l/m 0 min 0 min 0 W/m 0,0 km/h (0 Bft) 97,44 %
08.09.2020 23:24 14,8 C 12,8 C 12,8 C 93 % 1025,6 hPa 0,0 l/m 0 min 0 min 0 W/m 0,0 km/h (0 Bft) 95,65 %
08.09.2020 23:26 14,8 C 13,3 C 12,8 C 93 % 1025,6 hPa 0,0 l/m 0 min 0 min 0 W/m 0,0 km/h (0 Bft) 97,87 %
08.09.2020 23:28 14,8 C 12,8 C 12,8 C 93 % 1025,7 hPa 0,0 l/m 0 min 0 min 0 W/m 0,0 km/h (0 Bft) 97,87 %
08.09.2020 23:30 14,7 C 12,8 C 12,8 C 93 % 1025,6 hPa 0,0 l/m 0 min 0 min 0 W/m 0,0 km/h (0 Bft) 97,87 %
08.09.2020 23:32 14,7 C 12,8 C 12,8 C 93 % 1025,6 hPa 0,0 l/m 0 min 0 min 0 W/m 0,0 km/h (0 Bft) 93,62 %
08.09.2020 23:34 14,7 C 13,3 C 12,8 C 93 % 1025,6 hPa 0,0 l/m 0 min 0 min 0 W/m 0,0 km/h (0 Bft) 97,87 %
08.09.2020 23:36 14,7 C 13,3 C 12,8 C 93 % 1025,6 hPa 0,0 l/m 0 min 0 min 0 W/m 0,0 km/h (0 Bft) 97,83 %
08.09.2020 23:38 14,6 C 13,3 C 12,8 C 93 % 1025,6 hPa 0,0 l/m 0 min 0 min 0 W/m 0,0 km/h (0 Bft) 95,74 %
08.09.2020 23:40 14,6 C 13,3 C 12,8 C 93 % 1025,6 hPa 0,0 l/m 0 min 0 min 0 W/m 0,0 km/h (0 Bft) 95,74 %
08.09.2020 23:42 14,6 C 13,3 C 12,8 C 93 % 1025,6 hPa 0,0 l/m 0 min 0 min 0 W/m 0,0 km/h (0 Bft) 95,74 %
08.09.2020 23:44 14,6 C 13,3 C 12,8 C 93 % 1025,6 hPa 0,0 l/m 0 min 0 min 0 W/m 0,0 km/h (0 Bft) 95,74 %
08.09.2020 23:46 14,6 C 13,3 C 12,8 C 93 % 1025,6 hPa 0,0 l/m 0 min 0 min 0 W/m 0,0 km/h (0 Bft) 91,49 %
08.09.2020 23:48 14,5 C 13,3 C 12,8 C 93 % 1025,6 hPa 0,0 l/m 0 min 0 min 0 W/m 0,0 km/h (0 Bft) 95,65 %
08.09.2020 23:50 14,6 C 13,3 C 12,8 C 93 % 1025,6 hPa 0,0 l/m 0 min 0 min 0 W/m 0,0 km/h (0 Bft) 95,74 %
08.09.2020 23:52 14,5 C 13,3 C 12,8 C 93 % 1025,6 hPa 0,0 l/m 0 min 0 min 0 W/m 0,0 km/h (0 Bft) 93,62 %
08.09.2020 23:54 14,5 C 12,8 C 12,8 C 93 % 1025,5 hPa 0,0 l/m 0 min 0 min 0 W/m 0,0 km/h (0 Bft) 97,87 %
08.09.2020 23:56 14,5 C 12,8 C 12,8 C 93 % 1025,6 hPa 0,0 l/m 0 min 0 min 0 W/m 0,0 km/h (0 Bft) 95,74 %
08.09.2020 23:58 14,5 C 12,8 C 12,8 C 93 % 1025,6 hPa 0,0 l/m 0 min 0 min 0 W/m 0,0 km/h (0 Bft) 97,87 %
_ Min-Zeit 06:26 05:12 05:52 17:18 03:38 - - - - 00:58 00:08
Minimum _ 12,6 C 11,7 C 11,1 C 77 % 1024,6 hPa - - - - 0,0 km/h (0 Bft) 91,30 %
_ Max-Zeit 17:28 17:08 17:04 22:38 12:46 00:00 18:08 00:00 17:00 09:50 00:22
Maximum _ 22,3 C 25,6 C 21,1 C 93 % 1026,4 hPa 0,0 l/m 4 min 0 min 574 W/m 29,0 km/h
SO (5 Bft)
100,00 %
Durchschnitt _ 16,8 C 16,3 C 15,3 C 84 % 1025,6 hPa #0,0 l/m #2:08 h #0 min. 161 W/m 7,4 km/h (2 Bft) 97,57 %
© 2020 W. Hausmann